Observation data for McCamey on 11/09/2019      Previous  Date       Current Mesonet Observations  Soil Data  Daily Summary Page  Observations in Plain Language
KMC4 090600Z 09003KT 08/06 A3034 RMK A01 T00780064  RH  091%=      5-min Rain = 0
KMC4 090601Z 08003KT 08/06 A3034 RMK A01 T00780063  RH  091%=      5-min Rain = 0
KMC4 090602Z 08002KT 08/06 A3034 RMK A01 T00780064  RH  091%=      5-min Rain = 0
KMC4 090603Z 07002KT 08/06 A3034 RMK A01 T00780064  RH  091%=      5-min Rain = 0
KMC4 090604Z 07002KT 08/06 A3034 RMK A01 T00770064  RH  091%=      5-min Rain = 0
KMC4 090605Z 07003KT 08/06 A3034 RMK A01 T00770063  RH  091%=      5-min Rain = 0
KMC4 090606Z 08003KT 08/06 A3033 RMK A01 T00770063  RH  091%=      5-min Rain = 0
KMC4 090607Z 08003KT 08/06 A3033 RMK A01 T00770063  RH  091%=      5-min Rain = 0
KMC4 090608Z 09003KT 08/06 A3033 RMK A01 T00770063  RH  091%=      5-min Rain = 0
KMC4 090609Z 09003KT 08/06 A3033 RMK A01 T00770063  RH  091%=      5-min Rain = 0
KMC4 090610Z 08003KT 08/06 A3033 RMK A01 T00770064  RH  091%=      5-min Rain = 0
KMC4 090611Z 08003KT 08/06 A3033 RMK A01 T00770064  RH  091%=      5-min Rain = 0
KMC4 090612Z 08003KT 08/06 A3033 RMK A01 T00770064  RH  092%=      5-min Rain = 0
KMC4 090613Z 08002KT 08/06 A3033 RMK A01 T00770064  RH  092%=      5-min Rain = 0
KMC4 090614Z 08002KT 08/06 A3033 RMK A01 T00760063  RH  092%=      5-min Rain = 0
KMC4 090615Z 08002KT 08/06 A3033 RMK A01 T00760063  RH  091%=      5-min Rain = 0
KMC4 090616Z 08003KT 08/06 A3033 RMK A01 T00760063  RH  091%=      5-min Rain = 0
KMC4 090617Z 08002KT 08/06 A3033 RMK A01 T00760063  RH  091%=      5-min Rain = 0
KMC4 090618Z 08002KT 08/06 A3033 RMK A01 T00770063  RH  091%=      5-min Rain = 0
KMC4 090619Z 07003KT 08/06 A3033 RMK A01 T00770063  RH  091%=      5-min Rain = 0
KMC4 090620Z 07003KT 08/06 A3033 RMK A01 T00770063  RH  091%=      5-min Rain = 0
KMC4 090621Z 07003KT 08/06 A3033 RMK A01 T00770063  RH  091%=      5-min Rain = 0
KMC4 090622Z 07003KT 08/06 A3033 RMK A01 T00770063  RH  091%=      5-min Rain = 0
KMC4 090623Z 07003KT 08/06 A3033 RMK A01 T00770063  RH  091%=      5-min Rain = 0
KMC4 090624Z 08003KT 08/06 A3033 RMK A01 T00770063  RH  091%=      5-min Rain = 0
KMC4 090625Z 08002KT 08/06 A3033 RMK A01 T00760063  RH  091%=      5-min Rain = 0
KMC4 090626Z 08002KT 08/06 A3032 RMK A01 T00760063  RH  091%=      5-min Rain = 0
KMC4 090627Z 08002KT 08/06 A3032 RMK A01 T00760063  RH  091%=      5-min Rain = 0
KMC4 090628Z 08002KT 08/06 A3032 RMK A01 T00760063  RH  091%=      5-min Rain = 0
KMC4 090629Z 09002KT 08/06 A3032 RMK A01 T00760063  RH  091%=      5-min Rain = 0
KMC4 090630Z 09002KT 08/06 A3032 RMK A01 T00760063  RH  091%=      5-min Rain = 0
KMC4 090631Z 09002KT 08/06 A3032 RMK A01 T00760063  RH  091%=      5-min Rain = 0
KMC4 090632Z 09002KT 08/06 A3032 RMK A01 T00760063  RH  091%=      5-min Rain = 0
KMC4 090633Z 09002KT 08/06 A3032 RMK A01 T00760063  RH  091%=      5-min Rain = 0
KMC4 090634Z 09002KT 08/06 A3032 RMK A01 T00760064  RH  092%=      5-min Rain = 0
KMC4 090635Z 09002KT 08/06 A3032 RMK A01 T00760063  RH  092%=      5-min Rain = 0
KMC4 090636Z 09002KT 08/06 A3032 RMK A01 T00760063  RH  092%=      5-min Rain = 0
KMC4 090637Z 08003KT 08/06 A3032 RMK A01 T00750063  RH  092%=      5-min Rain = 0
KMC4 090638Z 08002KT 08/06 A3032 RMK A01 T00750063  RH  092%=      5-min Rain = 0
KMC4 090639Z 07003KT 08/06 A3032 RMK A01 T00750063  RH  092%=      5-min Rain = 0
KMC4 090640Z 07002KT 08/06 A3032 RMK A01 T00760063  RH  092%=      5-min Rain = 0
KMC4 090641Z 08002KT 08/06 A3032 RMK A01 T00760063  RH  092%=      5-min Rain = 0
KMC4 090642Z 08002KT 08/06 A3032 RMK A01 T00760063  RH  092%=      5-min Rain = 0
KMC4 090643Z 08002KT 08/06 A3032 RMK A01 T00760063  RH  092%=      5-min Rain = 0
KMC4 090644Z 08002KT 08/06 A3032 RMK A01 T00760063  RH  092%=      5-min Rain = 0
KMC4 090645Z 08002KT 08/06 A3032 RMK A01 T00760063  RH  092%=      5-min Rain = 0
KMC4 090646Z 08002KT 08/06 A3032 RMK A01 T00760063  RH  092%=      5-min Rain = 0
KMC4 090647Z 07002KT 08/06 A3032 RMK A01 T00760063  RH  092%=      5-min Rain = 0
KMC4 090648Z 07002KT 08/06 A3032 RMK A01 T00760063  RH  092%=      5-min Rain = 0
KMC4 090649Z 06003KT 08/06 A3032 RMK A01 T00760063  RH  092%=      5-min Rain = 0
KMC4 090650Z 06003KT 08/06 A3032 RMK A01 T00750063  RH  092%=      5-min Rain = 0
KMC4 090651Z 06003KT 08/06 A3032 RMK A01 T00750063  RH  092%=      5-min Rain = 0
KMC4 090652Z 06003KT 08/06 A3032 RMK A01 T00750063  RH  092%=      5-min Rain = 0
KMC4 090653Z 06003KT 08/06 A3032 RMK A01 T00750063  RH  092%=      5-min Rain = 0
KMC4 090654Z 06003KT 08/06 A3032 RMK A01 T00750063  RH  092%=      5-min Rain = 0
KMC4 090655Z 05003KT 07/06 A3032 RMK A01 T00740062  RH  092%=      5-min Rain = 0
KMC4 090656Z 05003KT 07/06 A3032 RMK A01 T00740063  RH  092%=      5-min Rain = 0
KMC4 090657Z 05004KT 07/06 A3032 RMK A01 T00740063  RH  092%=      5-min Rain = 0
KMC4 090658Z 05004KT 07/06 A3032 RMK A01 T00740063  RH  093%=      5-min Rain = 0
KMC4 090659Z 05004KT 07/06 A3032 RMK A01 T00740063  RH  093%=      5-min Rain = 0
KMC4 090700Z 05004KT 07/06 A3032 RMK A01 T00740063  RH  093%=      5-min Rain = 0
KMC4 090701Z 05004KT 07/06 A3032 RMK A01 T00740063  RH  093%=      5-min Rain = 0
KMC4 090702Z 06004KT 07/06 A3032 RMK A01 T00740062  RH  093%=      5-min Rain = 0
KMC4 090703Z 06003KT 07/06 A3032 RMK A01 T00740063  RH  092%=      5-min Rain = 0
KMC4 090704Z 06004KT 07/06 A3032 RMK A01 T00740063  RH  092%=      5-min Rain = 0
KMC4 090705Z 07004KT 07/06 A3032 RMK A01 T00740062  RH  092%=      5-min Rain = 0
KMC4 090706Z 07004KT 07/06 A3032 RMK A01 T00740062  RH  092%=      5-min Rain = 0
KMC4 090707Z 07003KT 07/06 A3032 RMK A01 T00740061  RH  092%=      5-min Rain = 0
KMC4 090708Z 07003KT 07/06 A3032 RMK A01 T00740062  RH  092%=      5-min Rain = 0
KMC4 090709Z 06003KT 07/06 A3032 RMK A01 T00740061  RH  091%=      5-min Rain = 0
KMC4 090710Z 07003KT 08/06 A3032 RMK A01 T00750061  RH  091%=      5-min Rain = 0
KMC4 090711Z 07003KT 08/06 A3031 RMK A01 T00750061  RH  091%=      5-min Rain = 0
KMC4 090712Z 07003KT 08/06 A3031 RMK A01 T00750061  RH  091%=      5-min Rain = 0
KMC4 090713Z 07003KT 08/06 A3031 RMK A01 T00750061  RH  091%=      5-min Rain = 0
KMC4 090714Z 07003KT 08/06 A3031 RMK A01 T00750061  RH  091%=      5-min Rain = 0
KMC4 090715Z 07003KT 08/06 A3031 RMK A01 T00750061  RH  091%=      5-min Rain = 0
KMC4 090722Z 08004KT 08/06 A3031 RMK A01 T00750060  RH  091%=      5-min Rain = 0
KMC4 090723Z 08004KT 07/06 A3031 RMK A01 T00740060  RH  091%=      5-min Rain = 0
KMC4 090724Z 09004KT 07/06 A3031 RMK A01 T00740060  RH  091%=      5-min Rain = 0
KMC4 090725Z 08004KT 07/06 A3031 RMK A01 T00740060  RH  091%=      5-min Rain = 0
KMC4 090726Z 08004KT 07/06 A3031 RMK A01 T00740060  RH  091%=      5-min Rain = 0
KMC4 090727Z 08004KT 07/06 A3031 RMK A01 T00740060  RH  091%=      5-min Rain = 0
KMC4 090728Z 08004KT 07/06 A3031 RMK A01 T00740060  RH  091%=      5-min Rain = 0
KMC4 090729Z 08004KT 07/06 A3031 RMK A01 T00740060  RH  091%=      5-min Rain = 0
KMC4 090730Z 08004KT 07/06 A3031 RMK A01 T00730060  RH  091%=      5-min Rain = 0
KMC4 090731Z 08004KT 07/06 A3031 RMK A01 T00730060  RH  091%=      5-min Rain = 0
KMC4 090732Z 08003KT 07/06 A3031 RMK A01 T00730060  RH  091%=      5-min Rain = 0
KMC4 090733Z 08004KT 07/06 A3031 RMK A01 T00730060  RH  091%=      5-min Rain = 0
KMC4 090734Z 08003KT 07/06 A3031 RMK A01 T00730060  RH  091%=      5-min Rain = 0
KMC4 090735Z 08003KT 07/06 A3031 RMK A01 T00730060  RH  091%=      5-min Rain = 0
KMC4 090736Z 07002KT 07/06 A3031 RMK A01 T00730059  RH  091%=      5-min Rain = 0
KMC4 090737Z 07003KT 07/06 A3031 RMK A01 T00730059  RH  091%=      5-min Rain = 0
KMC4 090738Z 08003KT 07/06 A3031 RMK A01 T00730059  RH  091%=      5-min Rain = 0
KMC4 090739Z 08003KT 07/06 A3031 RMK A01 T00730059  RH  091%=      5-min Rain = 0
KMC4 090740Z 08003KT 07/06 A3031 RMK A01 T00730060  RH  091%=      5-min Rain = 0
KMC4 090741Z 07003KT 07/06 A3031 RMK A01 T00730060  RH  091%=      5-min Rain = 0
KMC4 090742Z 07003KT 07/06 A3031 RMK A01 T00720059  RH  091%=      5-min Rain = 0
KMC4 090743Z 07003KT 07/06 A3031 RMK A01 T00720059  RH  091%=      5-min Rain = 0
KMC4 090744Z 07003KT 07/06 A3031 RMK A01 T00730059  RH  091%=      5-min Rain = 0
KMC4 090745Z 07003KT 07/06 A3031 RMK A01 T00730059  RH  091%=      5-min Rain = 0
KMC4 090746Z 07003KT 07/06 A3031 RMK A01 T00730059  RH  091%=      5-min Rain = 0
KMC4 090747Z 07003KT 07/06 A3031 RMK A01 T00720059  RH  091%=      5-min Rain = 0
KMC4 090748Z 07003KT 07/06 A3031 RMK A01 T00730059  RH  091%=      5-min Rain = 0
KMC4 090749Z 07003KT 07/06 A3031 RMK A01 T00730059  RH  091%=      5-min Rain = 0
KMC4 090750Z 06003KT 07/06 A303 RMK A01 T00720059  RH  091%=      5-min Rain = 0
KMC4 090751Z 07003KT 07/06 A303 RMK A01 T00730059  RH  091%=      5-min Rain = 0
KMC4 090752Z 06004KT 07/06 A303 RMK A01 T00720059  RH  091%=      5-min Rain = 0
KMC4 090753Z 06003KT 07/06 A303 RMK A01 T00720058  RH  091%=      5-min Rain = 0
KMC4 090754Z 06003KT 07/06 A303 RMK A01 T00720059  RH  091%=      5-min Rain = 0
KMC4 090755Z 06003KT 07/06 A303 RMK A01 T00720059  RH  091%=      5-min Rain = 0
KMC4 090756Z 07003KT 07/06 A303 RMK A01 T00720059  RH  092%=      5-min Rain = 0
KMC4 090757Z 07003KT 07/06 A303 RMK A01 T00710058  RH  092%=      5-min Rain = 0
KMC4 090758Z 07003KT 07/06 A303 RMK A01 T00710058  RH  092%=      5-min Rain = 0
KMC4 090759Z 07003KT 07/06 A303 RMK A01 T00710058  RH  092%=      5-min Rain = 0
KMC4 090800Z 07003KT 07/06 A303 RMK A01 T00710058  RH  092%=      5-min Rain = 0
KMC4 090801Z 06003KT 07/06 A303 RMK A01 T00710058  RH  092%=      5-min Rain = 0
KMC4 090802Z 06003KT 07/06 A303 RMK A01 T00700058  RH  092%=      5-min Rain = 0
KMC4 090803Z 06003KT 07/06 A303 RMK A01 T00700058  RH  092%=      5-min Rain = 0
KMC4 090804Z 05003KT 07/06 A303 RMK A01 T00700058  RH  092%=      5-min Rain = 0
KMC4 090805Z 05003KT 07/06 A303 RMK A01 T00690058  RH  093%=      5-min Rain = 0
KMC4 090806Z 06003KT 07/06 A303 RMK A01 T00690058  RH  093%=      5-min Rain = 0
KMC4 090807Z 06003KT 07/06 A303 RMK A01 T00690058  RH  093%=      5-min Rain = 0
KMC4 090808Z 06003KT 07/06 A303 RMK A01 T00680058  RH  093%=      5-min Rain = 0
KMC4 090809Z 07003KT 07/06 A303 RMK A01 T00680057  RH  093%=      5-min Rain = 0
KMC4 090810Z 07003KT 07/06 A303 RMK A01 T00670057  RH  093%=      5-min Rain = 0
KMC4 090811Z 08003KT 07/06 A303 RMK A01 T00670057  RH  093%=      5-min Rain = 0
KMC4 090812Z 08003KT 07/06 A303 RMK A01 T00670057  RH  093%=      5-min Rain = 0
KMC4 090813Z 08003KT 07/06 A303 RMK A01 T00670057  RH  093%=      5-min Rain = 0
KMC4 090814Z 07003KT 07/06 A303 RMK A01 T00670057  RH  093%=      5-min Rain = 0
KMC4 090815Z 07004KT 07/06 A303 RMK A01 T00670057  RH  093%=      5-min Rain = 0
KMC4 090816Z 07004KT 07/06 A3029 RMK A01 T00670057  RH  093%=      5-min Rain = 0
KMC4 090817Z 06003KT 07/06 A3029 RMK A01 T00670057  RH  094%=      5-min Rain = 0
KMC4 090818Z 06003KT 07/06 A3029 RMK A01 T00670057  RH  093%=      5-min Rain = 0
KMC4 090819Z 06003KT 07/06 A3029 RMK A01 T00670057  RH  093%=      5-min Rain = 0
KMC4 090820Z 06003KT 07/06 A3029 RMK A01 T00670057  RH  093%=      5-min Rain = 0
KMC4 090821Z 06003KT 07/06 A303 RMK A01 T00670057  RH  094%=      5-min Rain = 0
KMC4 090822Z 06003KT 07/06 A3029 RMK A01 T00660057  RH  094%=      5-min Rain = 0
KMC4 090823Z 06003KT 07/06 A3029 RMK A01 T00660057  RH  094%=      5-min Rain = 0
KMC4 090824Z 06003KT 07/06 A3029 RMK A01 T00670057  RH  094%=      5-min Rain = 0
KMC4 090825Z 06004KT 07/06 A3029 RMK A01 T00660057  RH  094%=      5-min Rain = 0
KMC4 090826Z 06004KT 07/06 A3029 RMK A01 T00660057  RH  094%=      5-min Rain = 0
KMC4 090827Z 06003KT 07/06 A3029 RMK A01 T00660057  RH  094%=      5-min Rain = 0
KMC4 090828Z 06003KT 07/06 A3029 RMK A01 T00660057  RH  094%=      5-min Rain = 0
KMC4 090829Z 06003KT 07/06 A3029 RMK A01 T00660057  RH  094%=      5-min Rain = 0
KMC4 090830Z 06003KT 07/06 A3029 RMK A01 T00660057  RH  094%=      5-min Rain = 0
KMC4 090831Z 06003KT 07/06 A3029 RMK A01 T00660057  RH  094%=      5-min Rain = 0
KMC4 090832Z 06003KT 07/06 A3029 RMK A01 T00660057  RH  094%=      5-min Rain = 0
KMC4 090833Z 06003KT 07/06 A3029 RMK A01 T00660057  RH  094%=      5-min Rain = 0
KMC4 090834Z 06004KT 07/06 A3029 RMK A01 T00660057  RH  094%=      5-min Rain = 0
KMC4 090835Z 06003KT 07/06 A3029 RMK A01 T00660057  RH  094%=      5-min Rain = 0
KMC4 090836Z 06003KT 07/06 A3029 RMK A01 T00660057  RH  094%=      5-min Rain = 0
KMC4 090837Z 06003KT 07/06 A3029 RMK A01 T00660057  RH  094%=      5-min Rain = 0
KMC4 090838Z 06003KT 07/06 A3029 RMK A01 T00660057  RH  094%=      5-min Rain = 0
KMC4 090839Z 05003KT 07/06 A3029 RMK A01 T00660057  RH  094%=      5-min Rain = 0
KMC4 090840Z 05004KT 07/06 A3029 RMK A01 T00660057  RH  094%=      5-min Rain = 0
KMC4 090841Z 05003KT 07/06 A3029 RMK A01 T00660057  RH  094%=      5-min Rain = 0
KMC4 090842Z 06003KT 07/06 A3029 RMK A01 T00660057  RH  094%=      5-min Rain = 0
KMC4 090843Z 06003KT 07/06 A3029 RMK A01 T00660057  RH  094%=      5-min Rain = 0
KMC4 090844Z 05003KT 07/06 A3029 RMK A01 T00660057  RH  094%=      5-min Rain = 0
KMC4 090845Z 06003KT 07/06 A3029 RMK A01 T00660057  RH  094%=      5-min Rain = 0
KMC4 090846Z 05004KT 07/06 A3029 RMK A01 T00650056  RH  094%=      5-min Rain = 0
KMC4 090847Z 05004KT 07/06 A3029 RMK A01 T00650056  RH  094%=      5-min Rain = 0
KMC4 090848Z 05004KT 07/06 A3029 RMK A01 T00650056  RH  094%=      5-min Rain = 0
KMC4 090849Z 05004KT 07/06 A3029 RMK A01 T00650056  RH  094%=      5-min Rain = 0
KMC4 090850Z 05004KT 07/06 A3029 RMK A01 T00650057  RH  094%=      5-min Rain = 0
KMC4 090851Z 05004KT 07/06 A3028 RMK A01 T00650056  RH  094%=      5-min Rain = 0
KMC4 090852Z 05004KT 07/06 A3028 RMK A01 T00650056  RH  094%=      5-min Rain = 0
KMC4 090853Z 05004KT 07/06 A3028 RMK A01 T00650056  RH  094%=      5-min Rain = 0
KMC4 090854Z 05004KT 07/06 A3028 RMK A01 T00660057  RH  094%=      5-min Rain = 0
KMC4 090855Z 05004KT 07/06 A3028 RMK A01 T00660057  RH  094%=      5-min Rain = 0
KMC4 090856Z 05004KT 07/06 A3028 RMK A01 T00660057  RH  094%=      5-min Rain = 0
KMC4 090857Z 05004KT 07/06 A3028 RMK A01 T00660057  RH  094%=      5-min Rain = 0
KMC4 090858Z 05004KT 07/06 A3028 RMK A01 T00670057  RH  094%=      5-min Rain = 0
KMC4 090859Z 05003KT 07/06 A3028 RMK A01 T00660057  RH  094%=      5-min Rain = 0
KMC4 090900Z 06003KT 07/06 A3028 RMK A01 T00670057  RH  094%=      5-min Rain = 0
KMC4 090901Z 05003KT 07/06 A3028 RMK A01 T00670057  RH  093%=      5-min Rain = 0
KMC4 090902Z 05004KT 07/06 A3028 RMK A01 T00670057  RH  093%=      5-min Rain = 0
KMC4 090903Z 05004KT 07/06 A3028 RMK A01 T00660057  RH  094%=      5-min Rain = 0
KMC4 090904Z 05004KT 07/06 A3028 RMK A01 T00670057  RH  094%=      5-min Rain = 0
KMC4 090905Z 05004KT 07/06 A3028 RMK A01 T00660057  RH  094%=      5-min Rain = 0
KMC4 090906Z 05004KT 07/06 A3028 RMK A01 T00660057  RH  094%=      5-min Rain = 0
KMC4 090907Z 05004KT 07/06 A3028 RMK A01 T00670057  RH  094%=      5-min Rain = 0
KMC4 090908Z 05004KT 07/06 A3028 RMK A01 T00670057  RH  094%=      5-min Rain = 0
KMC4 090909Z 05004KT 07/06 A3028 RMK A01 T00670057  RH  093%=      5-min Rain = 0
KMC4 090910Z 05004KT 07/06 A3028 RMK A01 T00670057  RH  093%=      5-min Rain = 0
KMC4 090911Z 05004KT 07/06 A3028 RMK A01 T00670057  RH  093%=      5-min Rain = 0
KMC4 090912Z 05004KT 07/06 A3028 RMK A01 T00670057  RH  093%=      5-min Rain = 0
KMC4 090913Z 05004KT 07/06 A3028 RMK A01 T00670057  RH  093%=      5-min Rain = 0
KMC4 090914Z 05004KT 07/06 A3028 RMK A01 T00670057  RH  093%=      5-min Rain = 0
KMC4 090915Z 04004KT 07/06 A3028 RMK A01 T00670057  RH  093%=      5-min Rain = 0
KMC4 090916Z 04004KT 07/06 A3028 RMK A01 T00670057  RH  093%=      5-min Rain = 0
KMC4 090917Z 04004KT 07/06 A3028 RMK A01 T00670057  RH  093%=      5-min Rain = 0
KMC4 090918Z 05004KT 07/06 A3028 RMK A01 T00670057  RH  093%=      5-min Rain = 0
KMC4 090919Z 05004KT 07/06 A3028 RMK A01 T00670057  RH  093%=      5-min Rain = 0
KMC4 090920Z 05004KT 07/06 A3028 RMK A01 T00670057  RH  093%=      5-min Rain = 0
KMC4 090921Z 05004KT 07/06 A3028 RMK A01 T00670057  RH  093%=      5-min Rain = 0
KMC4 090922Z 05003KT 07/06 A3028 RMK A01 T00670057  RH  093%=      5-min Rain = 0
KMC4 090923Z 05003KT 07/06 A3028 RMK A01 T00670057  RH  093%=      5-min Rain = 0
KMC4 090924Z 05003KT 07/06 A3028 RMK A01 T00670057  RH  093%=      5-min Rain = 0
KMC4 090925Z 05003KT 07/06 A3028 RMK A01 T00680057  RH  093%=      5-min Rain = 0
KMC4 090926Z 04003KT 07/06 A3028 RMK A01 T00680057  RH  093%=      5-min Rain = 0
KMC4 090927Z 04004KT 07/06 A3027 RMK A01 T00670057  RH  093%=      5-min Rain = 0
KMC4 090928Z 04003KT 07/06 A3027 RMK A01 T00670057  RH  093%=      5-min Rain = 0
KMC4 090929Z 04003KT 07/06 A3027 RMK A01 T00670056  RH  093%=      5-min Rain = 0
KMC4 090930Z 05003KT 07/06 A3027 RMK A01 T00660056  RH  093%=      5-min Rain = 0
KMC4 090931Z 04003KT 07/06 A3027 RMK A01 T00660056  RH  093%=      5-min Rain = 0
KMC4 090932Z 04003KT 07/06 A3027 RMK A01 T00660056  RH  093%=      5-min Rain = 0
KMC4 090933Z 05003KT 07/06 A3027 RMK A01 T00660057  RH  094%=      5-min Rain = 0
KMC4 090934Z 05004KT 07/06 A3027 RMK A01 T00670057  RH  094%=      5-min Rain = 0
KMC4 090935Z 06004KT 07/06 A3027 RMK A01 T00670057  RH  093%=      5-min Rain = 0
KMC4 090936Z 05004KT 07/06 A3027 RMK A01 T00670057  RH  093%=      5-min Rain = 0
KMC4 090937Z 05004KT 07/06 A3027 RMK A01 T00670057  RH  093%=      5-min Rain = 0
KMC4 090938Z 05004KT 07/06 A3027 RMK A01 T00670057  RH  093%=      5-min Rain = 0
KMC4 090939Z 05004KT 07/06 A3027 RMK A01 T00670057  RH  093%=      5-min Rain = 0
KMC4 090940Z 05004KT 07/06 A3027 RMK A01 T00680057  RH  093%=      5-min Rain = 0
KMC4 090941Z 05004KT 07/06 A3027 RMK A01 T00680057  RH  093%=      5-min Rain = 0
KMC4 090942Z 04003KT 07/06 A3027 RMK A01 T00680057  RH  093%=      5-min Rain = 0
KMC4 090943Z 03003KT 07/06 A3027 RMK A01 T00670057  RH  093%=      5-min Rain = 0
KMC4 090944Z 04002KT 07/06 A3027 RMK A01 T00670057  RH  093%=      5-min Rain = 0
KMC4 090945Z 04002KT 07/06 A3027 RMK A01 T00660056  RH  093%=      5-min Rain = 0
KMC4 090946Z 03001KT 07/06 A3028 RMK A01 T00650055  RH  093%=      5-min Rain = 0
KMC4 090947Z 04002KT 07/05 A3027 RMK A01 T00650054  RH  093%=      5-min Rain = 0
KMC4 090948Z 04002KT 06/05 A3027 RMK A01 T00640054  RH  093%=      5-min Rain = 0
KMC4 090949Z 04002KT 06/05 A3027 RMK A01 T00640054  RH  093%=      5-min Rain = 0
KMC4 090950Z 05002KT 06/05 A3027 RMK A01 T00630053  RH  094%=      5-min Rain = 0
KMC4 090951Z 05002KT 06/05 A3027 RMK A01 T00630054  RH  094%=      5-min Rain = 0
KMC4 090952Z 06003KT 06/05 A3027 RMK A01 T00630054  RH  094%=      5-min Rain = 0
KMC4 090953Z 06002KT 06/06 A3027 RMK A01 T00630055  RH  095%=      5-min Rain = 0
KMC4 090954Z 05002KT 06/06 A3027 RMK A01 T00630055  RH  095%=      5-min Rain = 0
KMC4 090955Z 05002KT 06/06 A3027 RMK A01 T00630055  RH  095%=      5-min Rain = 0
KMC4 090956Z 05003KT 06/06 A3027 RMK A01 T00630055  RH  095%=      5-min Rain = 0
KMC4 090957Z 05003KT 06/06 A3027 RMK A01 T00630055  RH  095%=      5-min Rain = 0
KMC4 090958Z 05003KT 06/06 A3027 RMK A01 T00630055  RH  095%=      5-min Rain = 0
KMC4 090959Z 05004KT 06/06 A3027 RMK A01 T00630055  RH  095%=      5-min Rain = 0
KMC4 091000Z 05004KT 06/06 A3027 RMK A01 T00640056  RH  095%=      5-min Rain = 0
KMC4 091001Z 05004KT 06/06 A3027 RMK A01 T00640056  RH  095%=      5-min Rain = 0
KMC4 091002Z 05004KT 06/06 A3027 RMK A01 T00640057  RH  095%=      5-min Rain = 0
KMC4 091003Z 05004KT 07/06 A3027 RMK A01 T00650057  RH  095%=      5-min Rain = 0
KMC4 091004Z 06004KT 07/06 A3027 RMK A01 T00650058  RH  095%=      5-min Rain = 0
KMC4 091005Z 06004KT 07/06 A3027 RMK A01 T00660058  RH  094%=      5-min Rain = 0
KMC4 091006Z 06003KT 07/06 A3027 RMK A01 T00660058  RH  094%=      5-min Rain = 0
KMC4 091007Z 07003KT 07/06 A3027 RMK A01 T00670058  RH  094%=      5-min Rain = 0
KMC4 091008Z 06004KT 07/06 A3027 RMK A01 T00670058  RH  094%=      5-min Rain = 0
KMC4 091009Z 05004KT 07/06 A3027 RMK A01 T00670057  RH  094%=      5-min Rain = 0
KMC4 091010Z 05005KT 07/06 A3027 RMK A01 T00670057  RH  094%=      5-min Rain = 0
KMC4 091011Z 05004KT 07/06 A3027 RMK A01 T00670057  RH  093%=      5-min Rain = 0
KMC4 091012Z 05004KT 07/06 A3027 RMK A01 T00670057  RH  093%=      5-min Rain = 0
KMC4 091013Z 06004KT 07/06 A3027 RMK A01 T00670057  RH  093%=      5-min Rain = 0
KMC4 091014Z 06004KT 07/06 A3027 RMK A01 T00670057  RH  093%=      5-min Rain = 0
KMC4 091015Z 05004KT 07/06 A3027 RMK A01 T00670057  RH  093%=      5-min Rain = 0
KMC4 091016Z 05004KT 07/06 A3027 RMK A01 T00670057  RH  093%=      5-min Rain = 0
KMC4 091017Z 05003KT 07/06 A3027 RMK A01 T00670057  RH  093%=      5-min Rain = 0
KMC4 091018Z 05003KT 07/06 A3027 RMK A01 T00670057  RH  093%=      5-min Rain = 0
KMC4 091019Z 05003KT 07/06 A3027 RMK A01 T00670057  RH  093%=      5-min Rain = 0
KMC4 091020Z 05003KT 07/06 A3027 RMK A01 T00670057  RH  093%=      5-min Rain = 0
KMC4 091021Z 04004KT 07/06 A3027 RMK A01 T00670057  RH  093%=      5-min Rain = 0
KMC4 091022Z 04004KT 07/06 A3027 RMK A01 T00660056  RH  093%=      5-min Rain = 0
KMC4 091023Z 04004KT 07/06 A3027 RMK A01 T00660056  RH  093%=      5-min Rain = 0
KMC4 091024Z 04004KT 07/06 A3027 RMK A01 T00650055  RH  093%=      5-min Rain = 0
KMC4 091025Z 04004KT 07/06 A3027 RMK A01 T00650055  RH  093%=      5-min Rain = 0
KMC4 091026Z 04004KT 07/06 A3027 RMK A01 T00650055  RH  094%=      5-min Rain = 0
KMC4 091027Z 04004KT 06/06 A3027 RMK A01 T00640055  RH  094%=      5-min Rain = 0
KMC4 091028Z 04004KT 06/06 A3027 RMK A01 T00640055  RH  094%=      5-min Rain = 0
KMC4 091029Z 04004KT 06/06 A3027 RMK A01 T00640055  RH  094%=      5-min Rain = 0
KMC4 091030Z 04004KT 06/06 A3027 RMK A01 T00640055  RH  094%=      5-min Rain = 0
KMC4 091031Z 04003KT 06/06 A3027 RMK A01 T00640055  RH  094%=      5-min Rain = 0
KMC4 091032Z 03003KT 06/06 A3028 RMK A01 T00640056  RH  094%=      5-min Rain = 0
KMC4 091033Z 03004KT 06/06 A3028 RMK A01 T00640055  RH  094%=      5-min Rain = 0
KMC4 091034Z 03004KT 06/06 A3028 RMK A01 T00630055  RH  094%=      5-min Rain = 0
KMC4 091035Z 03004KT 06/05 A3028 RMK A01 T00630054  RH  094%=      5-min Rain = 0
KMC4 091036Z 03004KT 06/05 A3028 RMK A01 T00630054  RH  094%=      5-min Rain = 0
KMC4 091037Z 03004KT 06/05 A3028 RMK A01 T00630054  RH  094%=      5-min Rain = 0
KMC4 091038Z 03004KT 06/05 A3028 RMK A01 T00620054  RH  095%=      5-min Rain = 0
KMC4 091039Z 03004KT 06/06 A3028 RMK A01 T00620055  RH  095%=      5-min Rain = 0
KMC4 091040Z 03004KT 06/06 A3028 RMK A01 T00630055  RH  095%=      5-min Rain = 0
KMC4 091041Z 03004KT 06/06 A3028 RMK A01 T00630055  RH  095%=      5-min Rain = 0
KMC4 091042Z 04005KT 06/06 A3028 RMK A01 T00630055  RH  095%=      5-min Rain = 0
KMC4 091043Z 04004KT 06/06 A3028 RMK A01 T00630056  RH  095%=      5-min Rain = 0
KMC4 091044Z 04005KT 06/06 A3028 RMK A01 T00640057  RH  095%=      5-min Rain = 0
KMC4 091045Z 04004KT 07/06 A3028 RMK A01 T00650057  RH  095%=      5-min Rain = 0
KMC4 091046Z 04005KT 07/06 A3028 RMK A01 T00650057  RH  095%=      5-min Rain = 0
KMC4 091047Z 05005KT 07/06 A3028 RMK A01 T00650057  RH  095%=      5-min Rain = 0
KMC4 091048Z 05004KT 07/06 A3028 RMK A01 T00660058  RH  095%=      5-min Rain = 0
KMC4 091049Z 05004KT 07/06 A3028 RMK A01 T00660058  RH  094%=      5-min Rain = 0
KMC4 091050Z 05003KT 07/06 A3028 RMK A01 T00660058  RH  094%=      5-min Rain = 0
KMC4 091051Z 05004KT 07/06 A3028 RMK A01 T00660057  RH  094%=      5-min Rain = 0
KMC4 091052Z 05004KT 07/06 A3028 RMK A01 T00660057  RH  094%=      5-min Rain = 0
KMC4 091053Z 05005KT 07/06 A3028 RMK A01 T00660057  RH  094%=      5-min Rain = 0
KMC4 091054Z 05004KT 07/06 A3028 RMK A01 T00660057  RH  094%=      5-min Rain = 0
KMC4 091055Z 05004KT 07/06 A3028 RMK A01 T00660057  RH  094%=      5-min Rain = 0
KMC4 091056Z 05004KT 07/06 A3028 RMK A01 T00660057  RH  094%=      5-min Rain = 0
KMC4 091057Z 03003KT 07/06 A3028 RMK A01 T00660057  RH  094%=      5-min Rain = 0
KMC4 091058Z 04004KT 07/06 A3028 RMK A01 T00660057  RH  094%=      5-min Rain = 0
KMC4 091059Z 04005KT 07/06 A3028 RMK A01 T00660058  RH  094%=      5-min Rain = 0
KMC4 091100Z 04005KT 07/06 A3028 RMK A01 T00660057  RH  094%=      5-min Rain = 0
KMC4 091101Z 04004KT 07/06 A3028 RMK A01 T00660058  RH  094%=      5-min Rain = 0
KMC4 091102Z 04004KT 07/06 A3028 RMK A01 T00670058  RH  094%=      5-min Rain = 0
KMC4 091103Z 04004KT 07/06 A3028 RMK A01 T00670058  RH  094%=      5-min Rain = 0
KMC4 091104Z 04004KT 07/06 A3028 RMK A01 T00660057  RH  094%=      5-min Rain = 0
KMC4 091105Z 04005KT 07/06 A3028 RMK A01 T00670057  RH  094%=      5-min Rain = 0
KMC4 091106Z 04004KT 07/06 A3028 RMK A01 T00660057  RH  094%=      5-min Rain = 0
KMC4 091107Z 05004KT 07/06 A3028 RMK A01 T00660057  RH  094%=      5-min Rain = 0
KMC4 091108Z 05003KT 07/06 A3028 RMK A01 T00670058  RH  094%=      5-min Rain = 0
KMC4 091109Z 05004KT 07/06 A3028 RMK A01 T00660057  RH  094%=      5-min Rain = 0
KMC4 091110Z 05004KT 07/06 A3028 RMK A01 T00660057  RH  094%=      5-min Rain = 0
KMC4 091111Z 05003KT 07/06 A3028 RMK A01 T00660057  RH  094%=      5-min Rain = 0
KMC4 091112Z 06003KT 07/06 A3028 RMK A01 T00660057  RH  094%=      5-min Rain = 0
KMC4 091113Z 07003KT 07/06 A3028 RMK A01 T00660057  RH  094%=      5-min Rain = 0
KMC4 091114Z 07003KT 07/06 A3028 RMK A01 T00660057  RH  094%=      5-min Rain = 0
KMC4 091115Z 06004KT 07/06 A3028 RMK A01 T00650057  RH  094%=      5-min Rain = 0
KMC4 091116Z 06004KT 07/06 A3028 RMK A01 T00660057  RH  094%=      5-min Rain = 0
KMC4 091117Z 07004KT 07/06 A3028 RMK A01 T00660058  RH  094%=      5-min Rain = 0
KMC4 091118Z 08004KT 07/06 A3028 RMK A01 T00660058  RH  094%=      5-min Rain = 0
KMC4 091119Z 09003KT 07/06 A3028 RMK A01 T00660057  RH  094%=      5-min Rain = 0
KMC4 091120Z 12002KT 06/06 A3028 RMK A01 T00640055  RH  094%=      5-min Rain = 0
KMC4 091121Z 09002KT 06/05 A3028 RMK A01 T00620051  RH  093%=      5-min Rain = 0
KMC4 091122Z 08003KT 06/05 A3028 RMK A01 T00600049  RH  093%=      5-min Rain = 0
KMC4 091123Z 09002KT 06/05 A3028 RMK A01 T00590048  RH  093%=      5-min Rain = 0
KMC4 091124Z 07003KT 06/05 A3028 RMK A01 T00570047  RH  093%=      5-min Rain = 0
KMC4 091125Z 07003KT 06/05 A3028 RMK A01 T00560046  RH  093%=      5-min Rain = 0
KMC4 091126Z 07004KT 06/05 A3028 RMK A01 T00560047  RH  094%=      5-min Rain = 0
KMC4 091127Z 07004KT 06/05 A3028 RMK A01 T00570050  RH  095%=      5-min Rain = 0
KMC4 091128Z 07004KT 06/05 A3028 RMK A01 T00590053  RH  096%=      5-min Rain = 0
KMC4 091129Z 07004KT 06/06 A3028 RMK A01 T00600055  RH  096%=      5-min Rain = 0
KMC4 091130Z 06003KT 06/06 A3028 RMK A01 T00610055  RH  096%=      5-min Rain = 0
KMC4 091131Z 06004KT 06/06 A3028 RMK A01 T00610055  RH  096%=      5-min Rain = 0
KMC4 091132Z 05005KT 06/06 A3028 RMK A01 T00620056  RH  096%=      5-min Rain = 0
KMC4 091133Z 05005KT 06/06 A3028 RMK A01 T00620056  RH  096%=      5-min Rain = 0
KMC4 091134Z 05005KT 06/06 A3028 RMK A01 T00620056  RH  096%=      5-min Rain = 0
KMC4 091135Z 05005KT 06/06 A3028 RMK A01 T00620056  RH  096%=      5-min Rain = 0
KMC4 091136Z 05005KT 06/06 A3028 RMK A01 T00630057  RH  096%=      5-min Rain = 0
KMC4 091137Z 05004KT 06/06 A3028 RMK A01 T00630057  RH  096%=      5-min Rain = 0
KMC4 091138Z 05004KT 06/06 A3028 RMK A01 T00630057  RH  096%=      5-min Rain = 0
KMC4 091139Z 05005KT 06/06 A3028 RMK A01 T00630057  RH  095%=      5-min Rain = 0
KMC4 091140Z 05005KT 06/06 A3028 RMK A01 T00630056  RH  095%=      5-min Rain = 0
KMC4 091141Z 04005KT 06/06 A3028 RMK A01 T00630057  RH  095%=      5-min Rain = 0
KMC4 091142Z 05005KT 06/06 A3028 RMK A01 T00630056  RH  095%=      5-min Rain = 0
KMC4 091143Z 05005KT 06/06 A3028 RMK A01 T00630056  RH  095%=      5-min Rain = 0
KMC4 091144Z 06005KT 06/06 A3028 RMK A01 T00630056  RH  095%=      5-min Rain = 0
KMC4 091145Z 05005KT 06/06 A3028 RMK A01 T00630056  RH  095%=      5-min Rain = 0
KMC4 091146Z 05006KT 06/06 A3028 RMK A01 T00630056  RH  095%=      5-min Rain = 0
KMC4 091147Z 05005KT 06/06 A3028 RMK A01 T00640057  RH  095%=      5-min Rain = 0
KMC4 091148Z 05005KT 06/06 A3028 RMK A01 T00640057  RH  095%=      5-min Rain = 0
KMC4 091149Z 06005KT 06/06 A3028 RMK A01 T00640057  RH  095%=      5-min Rain = 0
KMC4 091150Z 05005KT 06/06 A3028 RMK A01 T00640057  RH  095%=      5-min Rain = 0
KMC4 091151Z 06005KT 06/06 A3028 RMK A01 T00640057  RH  095%=      5-min Rain = 0
KMC4 091152Z 06005KT 06/06 A3028 RMK A01 T00640056  RH  095%=      5-min Rain = 0
KMC4 091153Z 06005KT 06/06 A3028 RMK A01 T00640056  RH  095%=      5-min Rain = 0
KMC4 091154Z 06005KT 06/06 A3028 RMK A01 T00640057  RH  095%=      5-min Rain = 0
KMC4 091155Z 06006KT 06/06 A3028 RMK A01 T00640056  RH  095%=      5-min Rain = 0
KMC4 091156Z 06005KT 06/06 A3028 RMK A01 T00640056  RH  095%=      5-min Rain = 0
KMC4 091157Z 06005KT 06/06 A3028 RMK A01 T00640056  RH  095%=      5-min Rain = 0
KMC4 091158Z 07005KT 06/06 A3028 RMK A01 T00640056  RH  095%=      5-min Rain = 0
KMC4 091159Z 06006KT 06/06 A3028 RMK A01 T00630056  RH  095%=      5-min Rain = 0
KMC4 091200Z 07006KT 06/06 A3028 RMK A01 T00630056  RH  095%=      5-min Rain = 0
KMC4 091201Z 06006KT 06/06 A3028 RMK A01 T00630056  RH  095%=      5-min Rain = 0
KMC4 091202Z 06006KT 06/06 A3028 RMK A01 T00630056  RH  095%=      5-min Rain = 0
KMC4 091203Z 06006KT 06/06 A3028 RMK A01 T00630056  RH  095%=      5-min Rain = 0
KMC4 091204Z 06007KT 06/06 A3028 RMK A01 T00630056  RH  095%=      5-min Rain = 0
KMC4 091205Z 06006KT 06/06 A3028 RMK A01 T00630056  RH  095%=      5-min Rain = 0
KMC4 091206Z 06006KT 06/06 A3028 RMK A01 T00630056  RH  095%=      5-min Rain = 0
KMC4 091207Z 06006KT 06/06 A3028 RMK A01 T00630056  RH  095%=      5-min Rain = 0
KMC4 091208Z 06006KT 06/06 A3028 RMK A01 T00630056  RH  095%=      5-min Rain = 0
KMC4 091209Z 06006KT 06/06 A3028 RMK A01 T00630056  RH  095%=      5-min Rain = 0
KMC4 091210Z 06006KT 06/06 A3028 RMK A01 T00630056  RH  095%=      5-min Rain = 0
KMC4 091211Z 07006KT 06/06 A3028 RMK A01 T00630056  RH  095%=      5-min Rain = 0
KMC4 091212Z 07005KT 06/06 A3028 RMK A01 T00630056  RH  095%=      5-min Rain = 0
KMC4 091213Z 07004KT 06/06 A3028 RMK A01 T00630056  RH  095%=      5-min Rain = 0
KMC4 091214Z 07004KT 06/06 A3028 RMK A01 T00630056  RH  095%=      5-min Rain = 0
KMC4 091215Z 07004KT 06/06 A3028 RMK A01 T00630056  RH  095%=      5-min Rain = 0
KMC4 091216Z 06005KT 06/06 A3028 RMK A01 T00630056  RH  095%=      5-min Rain = 0
KMC4 091217Z 06004KT 06/06 A3028 RMK A01 T00630056  RH  095%=      5-min Rain = 0
KMC4 091218Z 06003KT 06/06 A3028 RMK A01 T00630056  RH  095%=      5-min Rain = 0
KMC4 091219Z 06004KT 06/06 A3028 RMK A01 T00630055  RH  095%=      5-min Rain = 0
KMC4 091220Z 06004KT 06/06 A3028 RMK A01 T00630055  RH  095%=      5-min Rain = 0
KMC4 091221Z 06005KT 06/06 A3028 RMK A01 T00630055  RH  095%=      5-min Rain = 0
KMC4 091222Z 06005KT 06/06 A3028 RMK A01 T00630056  RH  095%=      5-min Rain = 0
KMC4 091223Z 05004KT 06/06 A3028 RMK A01 T00630056  RH  095%=      5-min Rain = 0
KMC4 091224Z 06004KT 06/06 A3028 RMK A01 T00630055  RH  095%=      5-min Rain = 0
KMC4 091225Z 05004KT 06/06 A3028 RMK A01 T00620055  RH  095%=      5-min Rain = 0
KMC4 091226Z 06004KT 06/06 A3029 RMK A01 T00620055  RH  095%=      5-min Rain = 0
KMC4 091227Z 06004KT 06/06 A3029 RMK A01 T00620055  RH  095%=      5-min Rain = 0
KMC4 091228Z 06004KT 06/06 A3029 RMK A01 T00620055  RH  095%=      5-min Rain = 0
KMC4 091229Z 06004KT 06/06 A3029 RMK A01 T00620055  RH  095%=      5-min Rain = 0
KMC4 091230Z 05004KT 06/05 A3029 RMK A01 T00610054  RH  095%=      5-min Rain = 0
KMC4 091231Z 05004KT 06/06 A3029 RMK A01 T00620055  RH  095%=      5-min Rain = 0
KMC4 091232Z 05005KT 06/05 A3029 RMK A01 T00610054  RH  095%=      5-min Rain = 0
KMC4 091233Z 06005KT 06/05 A3029 RMK A01 T00610054  RH  095%=      5-min Rain = 0
KMC4 091234Z 06004KT 06/05 A3029 RMK A01 T00610054  RH  096%=      5-min Rain = 0
KMC4 091235Z 06004KT 06/06 A3029 RMK A01 T00610055  RH  096%=      5-min Rain = 0
KMC4 091236Z 06004KT 06/06 A3029 RMK A01 T00610055  RH  096%=      5-min Rain = 0
KMC4 091237Z 06004KT 06/06 A3029 RMK A01 T00610055  RH  096%=      5-min Rain = 0
KMC4 091238Z 06004KT 06/06 A3029 RMK A01 T00610055  RH  096%=      5-min Rain = 0
KMC4 091239Z 06003KT 06/06 A3029 RMK A01 T00610055  RH  096%=      5-min Rain = 0
KMC4 091240Z 06003KT 06/06 A3029 RMK A01 T00610055  RH  096%=      5-min Rain = 0
KMC4 091241Z 06003KT 06/06 A3029 RMK A01 T00610055  RH  096%=      5-min Rain = 0
KMC4 091242Z 07003KT 06/06 A3029 RMK A01 T00610055  RH  096%=      5-min Rain = 0
KMC4 091243Z 08002KT 06/06 A3029 RMK A01 T00610055  RH  096%=      5-min Rain = 0
KMC4 091244Z 08002KT 06/05 A3029 RMK A01 T00610054  RH  096%=      5-min Rain = 0
KMC4 091245Z 09002KT 06/05 A3029 RMK A01 T00600054  RH  096%=      5-min Rain = 0
KMC4 091246Z 09002KT 06/05 A3029 RMK A01 T00600053  RH  096%=      5-min Rain = 0
KMC4 091247Z 09002KT 06/05 A3029 RMK A01 T00590052  RH  095%=      5-min Rain = 0
KMC4 091248Z 09002KT 06/05 A3029 RMK A01 T00580052  RH  096%=      5-min Rain = 0
KMC4 091249Z 10001KT 06/05 A3029 RMK A01 T00580052  RH  096%=      5-min Rain = 0
KMC4 091250Z 10002KT 06/05 A3029 RMK A01 T00580052  RH  096%=      5-min Rain = 0
KMC4 091251Z 09002KT 06/05 A3029 RMK A01 T00570051  RH  096%=      5-min Rain = 0
KMC4 091252Z 10001KT 06/05 A3029 RMK A01 T00570051  RH  096%=      5-min Rain = 0
KMC4 091253Z 08001KT 06/05 A3029 RMK A01 T00570051  RH  096%=      5-min Rain = 0
KMC4 091254Z 07002KT 06/05 A3029 RMK A01 T00560050  RH  096%=      5-min Rain = 0
KMC4 091255Z 07002KT 06/05 A3029 RMK A01 T00550048  RH  096%=      5-min Rain = 0
KMC4 091256Z 06002KT 05/05 A3029 RMK A01 T00540048  RH  096%=      5-min Rain = 0
KMC4 091257Z 06003KT 05/05 A3029 RMK A01 T00540049  RH  096%=      5-min Rain = 0
KMC4 091258Z 07003KT 06/05 A3029 RMK A01 T00550050  RH  097%=      5-min Rain = 0
KMC4 091259Z 06003KT 06/05 A3029 RMK A01 T00560051  RH  097%=      5-min Rain = 0
KMC4 091300Z 07003KT 06/05 A3029 RMK A01 T00570052  RH  097%=      5-min Rain = 0
KMC4 091301Z 08002KT 06/05 A3029 RMK A01 T00570053  RH  097%=      5-min Rain = 0
KMC4 091302Z 08003KT 06/05 A3029 RMK A01 T00580053  RH  097%=      5-min Rain = 0
KMC4 091303Z 08002KT 06/05 A3029 RMK A01 T00570052  RH  097%=      5-min Rain = 0
KMC4 091304Z 08002KT 06/05 A3029 RMK A01 T00560051  RH  097%=      5-min Rain = 0
KMC4 091305Z 08002KT 05/05 A3029 RMK A01 T00540049  RH  096%=      5-min Rain = 0
KMC4 091306Z 08002KT 05/05 A3029 RMK A01 T00540048  RH  096%=      5-min Rain = 0
KMC4 091307Z 09002KT 05/05 A3029 RMK A01 T00530048  RH  097%=      5-min Rain = 0
KMC4 091308Z 09001KT 05/05 A3029 RMK A01 T00530048  RH  097%=      5-min Rain = 0
KMC4 091309Z 09001KT 05/05 A3029 RMK A01 T00520047  RH  096%=      5-min Rain = 0
KMC4 091310Z 09001KT 05/05 A3029 RMK A01 T00520047  RH  097%=      5-min Rain = 0
KMC4 091311Z 09000KT 05/05 A3029 RMK A01 T00520048  RH  097%=      5-min Rain = 0
KMC4 091312Z 09000KT 05/05 A3029 RMK A01 T00500045  RH  096%=      5-min Rain = 0
KMC4 091313Z 08001KT 05/04 A3029 RMK A01 T00480043  RH  096%=      5-min Rain = 0
KMC4 091314Z 08001KT 05/04 A3029 RMK A01 T00470041  RH  096%=      5-min Rain = 0
KMC4 091315Z 07001KT 05/04 A3029 RMK A01 T00460041  RH  096%=      5-min Rain = 0
KMC4 091316Z 06001KT 05/04 A3029 RMK A01 T00460040  RH  096%=      5-min Rain = 0
KMC4 091317Z 03001KT 05/04 A3029 RMK A01 T00460040  RH  096%=      5-min Rain = 0
KMC4 091318Z 02001KT 05/04 A3029 RMK A01 T00460041  RH  097%=      5-min Rain = 0
KMC4 091319Z 03001KT 05/04 A3029 RMK A01 T00470043  RH  097%=      5-min Rain = 0
KMC4 091320Z 03002KT 05/04 A3029 RMK A01 T00480043  RH  097%=      5-min Rain = 0
KMC4 091321Z 04002KT 05/04 A3029 RMK A01 T00480044  RH  097%=      5-min Rain = 0
KMC4 091322Z 04002KT 05/04 A3029 RMK A01 T00480044  RH  097%=      5-min Rain = 0
KMC4 091323Z 04002KT 05/05 A3029 RMK A01 T00490045  RH  097%=      5-min Rain = 0
KMC4 091324Z 03002KT 05/05 A3029 RMK A01 T00500046  RH  097%=      5-min Rain = 0
KMC4 091325Z 04002KT 05/05 A3029 RMK A01 T00510047  RH  097%=      5-min Rain = 0
KMC4 091326Z 04003KT 05/05 A3029 RMK A01 T00520048  RH  098%=      5-min Rain = 0
KMC4 091327Z 04003KT 05/05 A3029 RMK A01 T00520049  RH  098%=      5-min Rain = 0
KMC4 091328Z 04003KT 05/05 A3029 RMK A01 T00530049  RH  098%=      5-min Rain = 0
KMC4 091329Z 04003KT 05/05 A3029 RMK A01 T00530050  RH  098%=      5-min Rain = 0
KMC4 091330Z 04003KT 05/05 A3029 RMK A01 T00540051  RH  098%=      5-min Rain = 0
KMC4 091331Z 05003KT 06/05 A3029 RMK A01 T00550051  RH  098%=      5-min Rain = 0
KMC4 091332Z 04003KT 06/05 A3029 RMK A01 T00550052  RH  098%=      5-min Rain = 0
KMC4 091333Z 05003KT 06/05 A3029 RMK A01 T00560052  RH  098%=      5-min Rain = 0
KMC4 091334Z 05003KT 06/05 A3029 RMK A01 T00560052  RH  097%=      5-min Rain = 0
KMC4 091335Z 05003KT 06/05 A3029 RMK A01 T00570053  RH  097%=      5-min Rain = 0
KMC4 091336Z 05002KT 06/05 A3029 RMK A01 T00570053  RH  097%=      5-min Rain = 0
KMC4 091337Z 05002KT 06/05 A303 RMK A01 T00580054  RH  097%=      5-min Rain = 0
KMC4 091338Z 04002KT 06/05 A3029 RMK A01 T00580054  RH  097%=      5-min Rain = 0
KMC4 091339Z 04003KT 06/05 A3029 RMK A01 T00590054  RH  097%=      5-min Rain = 0
KMC4 091340Z 04002KT 06/06 A3029 RMK A01 T00590055  RH  097%=      5-min Rain = 0
KMC4 091341Z 03003KT 06/06 A3029 RMK A01 T00600055  RH  097%=      5-min Rain = 0
KMC4 091342Z 03003KT 06/06 A3029 RMK A01 T00600056  RH  097%=      5-min Rain = 0
KMC4 091343Z 02003KT 06/06 A3029 RMK A01 T00610056  RH  097%=      5-min Rain = 0
KMC4 091344Z 02003KT 06/06 A3029 RMK A01 T00620057  RH  097%=      5-min Rain = 0
KMC4 091345Z 03003KT 06/06 A3029 RMK A01 T00630058  RH  096%=      5-min Rain = 0
KMC4 091346Z 03003KT 06/06 A3029 RMK A01 T00640058  RH  096%=      5-min Rain = 0
KMC4 091347Z 04003KT 06/06 A3029 RMK A01 T00640058  RH  096%=      5-min Rain = 0
KMC4 091348Z 04003KT 06/06 A3029 RMK A01 T00640058  RH  096%=      5-min Rain = 0
KMC4 091349Z 04003KT 07/06 A3029 RMK A01 T00650058  RH  096%=      5-min Rain = 0
KMC4 091350Z 03003KT 07/06 A3029 RMK A01 T00650058  RH  095%=      5-min Rain = 0
KMC4 091351Z 03003KT 07/06 A3029 RMK A01 T00650058  RH  095%=      5-min Rain = 0
KMC4 091352Z 03003KT 07/06 A3029 RMK A01 T00660058  RH  095%=      5-min Rain = 0
KMC4 091353Z 02003KT 07/06 A3029 RMK A01 T00660059  RH  095%=      5-min Rain = 0
KMC4 091354Z 02003KT 07/06 A303 RMK A01 T00670060  RH  095%=      5-min Rain = 0
KMC4 091355Z 02003KT 07/06 A303 RMK A01 T00680061  RH  095%=      5-min Rain = 0
KMC4 091356Z 03003KT 07/06 A303 RMK A01 T00690061  RH  095%=      5-min Rain = 0
KMC4 091357Z 03003KT 07/06 A303 RMK A01 T00700061  RH  094%=      5-min Rain = 0
KMC4 091358Z 03003KT 07/06 A303 RMK A01 T00700062  RH  094%=      5-min Rain = 0
KMC4 091359Z 03003KT 07/06 A303 RMK A01 T00710062  RH  094%=      5-min Rain = 0
KMC4 091400Z 03003KT 07/06 A303 RMK A01 T00720062  RH  094%=      5-min Rain = 0
KMC4 091401Z 03002KT 07/06 A303 RMK A01 T00730063  RH  093%=      5-min Rain = 0
KMC4 091402Z 03002KT 07/06 A303 RMK A01 T00730063  RH  093%=      5-min Rain = 0
KMC4 091403Z 01002KT 07/06 A303 RMK A01 T00740063  RH  093%=      5-min Rain = 0
KMC4 091404Z 01001KT 08/06 A303 RMK A01 T00750064  RH  093%=      5-min Rain = 0
KMC4 091405Z 02001KT 08/06 A303 RMK A01 T00750064  RH  092%=      5-min Rain = 0
KMC4 091406Z 36002KT 08/06 A303 RMK A01 T00750063  RH  092%=      5-min Rain = 0
KMC4 091407Z 00002KT 08/06 A303 RMK A01 T00760063  RH  092%=      5-min Rain = 0
KMC4 091408Z 01002KT 08/06 A303 RMK A01 T00760063  RH  092%=      5-min Rain = 0
KMC4 091409Z 02003KT 08/06 A303 RMK A01 T00760063  RH  092%=      5-min Rain = 0
KMC4 091410Z 01003KT 08/06 A303 RMK A01 T00770063  RH  091%=      5-min Rain = 0
KMC4 091411Z 01003KT 08/06 A303 RMK A01 T00770064  RH  091%=      5-min Rain = 0
KMC4 091412Z 01003KT 08/06 A303 RMK A01 T00780064  RH  091%=      5-min Rain = 0
KMC4 091413Z 02003KT 08/06 A303 RMK A01 T00780063  RH  091%=      5-min Rain = 0
KMC4 091414Z 02002KT 08/06 A303 RMK A01 T00780063  RH  091%=      5-min Rain = 0
KMC4 091415Z 02002KT 08/06 A303 RMK A01 T00780064  RH  091%=      5-min Rain = 0
KMC4 091416Z 02001KT 08/07 A303 RMK A01 T00790065  RH  091%=      5-min Rain = 0
KMC4 091417Z 02001KT 08/07 A303 RMK A01 T00790065  RH  091%=      5-min Rain = 0
KMC4 091418Z 02002KT 08/07 A303 RMK A01 T00800066  RH  091%=      5-min Rain = 0
KMC4 091419Z 03002KT 08/07 A303 RMK A01 T00810066  RH  091%=      5-min Rain = 0
KMC4 091420Z 02002KT 08/07 A303 RMK A01 T00810066  RH  090%=      5-min Rain = 0
KMC4 091421Z 03002KT 08/07 A303 RMK A01 T00810065  RH  090%=      5-min Rain = 0
KMC4 091422Z 03002KT 08/07 A303 RMK A01 T00810065  RH  090%=      5-min Rain = 0
KMC4 091423Z 03002KT 08/07 A303 RMK A01 T00810065  RH  090%=      5-min Rain = 0
KMC4 091424Z 03002KT 08/07 A303 RMK A01 T00810066  RH  090%=      5-min Rain = 0
KMC4 091425Z 03002KT 08/07 A303 RMK A01 T00820066  RH  090%=      5-min Rain = 0
KMC4 091426Z 03002KT 08/07 A303 RMK A01 T00830067  RH  090%=      5-min Rain = 0
KMC4 091427Z 04002KT 08/07 A303 RMK A01 T00830067  RH  090%=      5-min Rain = 0
KMC4 091428Z 03002KT 08/07 A303 RMK A01 T00830067  RH  090%=      5-min Rain = 0
KMC4 091429Z 03002KT 08/07 A303 RMK A01 T00840069  RH  090%=      5-min Rain = 0
KMC4 091430Z 03002KT 09/07 A3031 RMK A01 T00850070  RH  090%=      5-min Rain = 0
KMC4 091431Z 03002KT 09/07 A3031 RMK A01 T00850069  RH  089%=      5-min Rain = 0
KMC4 091432Z 04001KT 09/07 A3031 RMK A01 T00860069  RH  089%=      5-min Rain = 0
KMC4 091433Z 05001KT 09/07 A3031 RMK A01 T00870069  RH  089%=      5-min Rain = 0
KMC4 091434Z 07001KT 09/07 A3031 RMK A01 T00880069  RH  088%=      5-min Rain = 0
KMC4 091435Z 07000KT 09/07 A3031 RMK A01 T00890069  RH  088%=      5-min Rain = 0
KMC4 091436Z 06000KT 09/07 A3031 RMK A01 T00900071  RH  088%=      5-min Rain = 0
KMC4 091437Z 06001KT 09/07 A3031 RMK A01 T00920072  RH  088%=      5-min Rain = 0
KMC4 091438Z 08001KT 09/07 A3031 RMK A01 T00930072  RH  087%=      5-min Rain = 0
KMC4 091439Z 08001KT 09/07 A3031 RMK A01 T00930071  RH  086%=      5-min Rain = 0
KMC4 091440Z 08000KT 10/07 A3031 RMK A01 T00950071  RH  085%=      5-min Rain = 0
KMC4 091441Z 09000KT 10/07 A3031 RMK A01 T00960072  RH  085%=      5-min Rain = 0
KMC4 091442Z 00000KT 10/07 A3031 RMK A01 T00980073  RH  085%=      5-min Rain = 0
KMC4 091443Z 00000KT 10/08 A3031 RMK A01 T01000075  RH  085%=      5-min Rain = 0
KMC4 091444Z 00000KT 10/08 A3031 RMK A01 T01020075  RH  083%=      5-min Rain = 0
KMC4 091445Z 00000KT 11/08 A3031 RMK A01 T01050077  RH  083%=      5-min Rain = 0
KMC4 091446Z 00000KT 11/08 A3031 RMK A01 T01070077  RH  081%=      5-min Rain = 0
KMC4 091447Z 00000KT 11/08 A3031 RMK A01 T01080076  RH  080%=      5-min Rain = 0
KMC4 091448Z 00000KT 11/08 A3031 RMK A01 T01100076  RH  079%=      5-min Rain = 0
KMC4 091449Z 18001KT 11/07 A3031 RMK A01 T01110074  RH  078%=      5-min Rain = 0
KMC4 091450Z 17001KT 11/07 A3031 RMK A01 T01080071  RH  078%=      5-min Rain = 0
KMC4 091451Z 15000KT 11/07 A3031 RMK A01 T01060071  RH  079%=      5-min Rain = 0
KMC4 091452Z 18000KT 11/07 A3031 RMK A01 T01050073  RH  080%=      5-min Rain = 0
KMC4 091453Z 16001KT 10/07 A3031 RMK A01 T01040072  RH  080%=      5-min Rain = 0
KMC4 091454Z 16000KT 10/07 A3031 RMK A01 T01040072  RH  081%=      5-min Rain = 0
KMC4 091455Z 00000KT 10/07 A3031 RMK A01 T01030074  RH  082%=      5-min Rain = 0
KMC4 091456Z 14000KT 11/08 A3031 RMK A01 T01050076  RH  083%=      5-min Rain = 0
KMC4 091457Z 13002KT 11/08 A3031 RMK A01 T01070077  RH  081%=      5-min Rain = 0
KMC4 091458Z 11001KT 11/07 A3031 RMK A01 T01080073  RH  079%=      5-min Rain = 0
KMC4 091459Z 15001KT 11/07 A3031 RMK A01 T01070074  RH  080%=      5-min Rain = 0
KMC4 091500Z 14002KT 11/08 A3031 RMK A01 T01070077  RH  081%=      5-min Rain = 0
KMC4 091501Z 14002KT 11/07 A3031 RMK A01 T01070074  RH  080%=      5-min Rain = 0
KMC4 091502Z 12001KT 11/07 A3031 RMK A01 T01060074  RH  080%=      5-min Rain = 0
KMC4 091503Z 11002KT 11/07 A3031 RMK A01 T01060074  RH  081%=      5-min Rain = 0
KMC4 091504Z 11002KT 11/07 A3031 RMK A01 T01060073  RH  080%=      5-min Rain = 0
KMC4 091505Z 10002KT 11/07 A3031 RMK A01 T01050073  RH  081%=      5-min Rain = 0
KMC4 091506Z 11002KT 10/07 A3031 RMK A01 T01030073  RH  081%=      5-min Rain = 0
KMC4 091507Z 12003KT 10/08 A3031 RMK A01 T01030075  RH  083%=      5-min Rain = 0
KMC4 091508Z 14003KT 10/07 A3031 RMK A01 T01040074  RH  082%=      5-min Rain = 0
KMC4 091509Z 14002KT 10/07 A3031 RMK A01 T01040072  RH  081%=      5-min Rain = 0
KMC4 091510Z 14002KT 10/07 A3031 RMK A01 T01040072  RH  080%=      5-min Rain = 0
KMC4 091511Z 11002KT 11/07 A3031 RMK A01 T01050073  RH  080%=      5-min Rain = 0
KMC4 091512Z 10003KT 11/07 A3031 RMK A01 T01060073  RH  080%=      5-min Rain = 0
KMC4 091513Z 10003KT 11/07 A3031 RMK A01 T01060073  RH  080%=      5-min Rain = 0
KMC4 091514Z 12002KT 11/07 A3031 RMK A01 T01050074  RH  081%=      5-min Rain = 0
KMC4 091515Z 11003KT 11/07 A3031 RMK A01 T01050074  RH  081%=      5-min Rain = 0
KMC4 091516Z 13003KT 11/07 A3031 RMK A01 T01050073  RH  080%=      5-min Rain = 0
KMC4 091517Z 14002KT 10/07 A3031 RMK A01 T01040073  RH  081%=      5-min Rain = 0
KMC4 091518Z 12003KT 11/07 A3031 RMK A01 T01050073  RH  081%=      5-min Rain = 0
KMC4 091519Z 12002KT 11/07 A3032 RMK A01 T01050072  RH  080%=      5-min Rain = 0
KMC4 091520Z 12002KT 11/07 A3032 RMK A01 T01060072  RH  079%=      5-min Rain = 0
KMC4 091521Z 13003KT 11/07 A3032 RMK A01 T01070074  RH  080%=      5-min Rain = 0
KMC4 091522Z 11003KT 11/07 A3032 RMK A01 T01080074  RH  080%=      5-min Rain = 0
KMC4 091523Z 11003KT 11/07 A3032 RMK A01 T01070074  RH  080%=      5-min Rain = 0
KMC4 091524Z 11002KT 11/07 A3032 RMK A01 T01060074  RH  080%=      5-min Rain = 0
KMC4 091525Z 13003KT 11/07 A3032 RMK A01 T01060074  RH  081%=      5-min Rain = 0
KMC4 091526Z 14003KT 11/08 A3032 RMK A01 T01070076  RH  081%=      5-min Rain = 0
KMC4 091527Z 13004KT 11/08 A3032 RMK A01 T01080075  RH  081%=      5-min Rain = 0
KMC4 091528Z 10004KT 11/08 A3032 RMK A01 T01070075  RH  080%=      5-min Rain = 0
KMC4 091529Z 12005KT 11/08 A3031 RMK A01 T01070076  RH  081%=      5-min Rain = 0
KMC4 091530Z 13004KT 11/08 A3031 RMK A01 T01070077  RH  082%=      5-min Rain = 0
KMC4 091531Z 13002KT 11/08 A3031 RMK A01 T01060075  RH  081%=      5-min Rain = 0
KMC4 091532Z 14002KT 11/08 A3031 RMK A01 T01070076  RH  081%=      5-min Rain = 0
KMC4 091533Z 14003KT 11/08 A3031 RMK A01 T01070076  RH  081%=      5-min Rain = 0
KMC4 091534Z 13003KT 11/08 A3031 RMK A01 T01080077  RH  081%=      5-min Rain = 0
KMC4 091535Z 14004KT 11/08 A3032 RMK A01 T01090077  RH  081%=      5-min Rain = 0
KMC4 091536Z 16003KT 11/08 A3032 RMK A01 T01100078  RH  081%=      5-min Rain = 0
KMC4 091537Z 17002KT 11/08 A3032 RMK A01 T01110078  RH  081%=      5-min Rain = 0
KMC4 091538Z 16002KT 11/08 A3031 RMK A01 T01100077  RH  080%=      5-min Rain = 0
KMC4 091539Z 14001KT 11/08 A3031 RMK A01 T01110077  RH  080%=      5-min Rain = 0
KMC4 091540Z 07001KT 11/08 A3031 RMK A01 T01120079  RH  080%=      5-min Rain = 0
KMC4 091541Z 12001KT 11/08 A3031 RMK A01 T01140080  RH  080%=      5-min Rain = 0
KMC4 091542Z 12003KT 11/08 A3032 RMK A01 T01140081  RH  080%=      5-min Rain = 0
KMC4 091543Z 12002KT 12/08 A3032 RMK A01 T01150081  RH  080%=      5-min Rain = 0
KMC4 091544Z 10001KT 12/08 A3032 RMK A01 T01150080  RH  079%=      5-min Rain = 0
KMC4 091545Z 11002KT 11/08 A3032 RMK A01 T01140079  RH  079%=      5-min Rain = 0
KMC4 091546Z 10001KT 11/08 A3032 RMK A01 T01140078  RH  079%=      5-min Rain = 0
KMC4 091547Z 09001KT 12/08 A3032 RMK A01 T01150078  RH  078%=      5-min Rain = 0
KMC4 091548Z 12001KT 12/08 A3032 RMK A01 T01160079  RH  078%=      5-min Rain = 0
KMC4 091549Z 17002KT 12/08 A3032 RMK A01 T01160079  RH  078%=      5-min Rain = 0
KMC4 091550Z 18002KT 12/08 A3032 RMK A01 T01170080  RH  078%=      5-min Rain = 0
KMC4 091551Z 15002KT 12/08 A3032 RMK A01 T01170081  RH  078%=      5-min Rain = 0
KMC4 091552Z 14004KT 12/08 A3032 RMK A01 T01170083  RH  079%=      5-min Rain = 0
KMC4 091553Z 13002KT 12/08 A3032 RMK A01 T01180079  RH  077%=      5-min Rain = 0
KMC4 091554Z 13002KT 12/08 A3032 RMK A01 T01170080  RH  078%=      5-min Rain = 0
KMC4 091555Z 12003KT 12/08 A3032 RMK A01 T01180081  RH  078%=      5-min Rain = 0
KMC4 091556Z 13001KT 12/08 A3031 RMK A01 T01180081  RH  078%=      5-min Rain = 0
KMC4 091557Z 12002KT 12/08 A3031 RMK A01 T01180080  RH  078%=      5-min Rain = 0
KMC4 091558Z 11001KT 12/08 A3032 RMK A01 T01180080  RH  077%=      5-min Rain = 0
KMC4 091559Z 15003KT 12/08 A3032 RMK A01 T01180081  RH  078%=      5-min Rain = 0
KMC4 091600Z 14003KT 12/08 A3032 RMK A01 T01190082  RH  078%=      5-min Rain = 0
KMC4 091601Z 12003KT 12/08 A3032 RMK A01 T01200081  RH  077%=      5-min Rain = 0
KMC4 091602Z 13003KT 12/08 A3032 RMK A01 T01200081  RH  077%=      5-min Rain = 0
KMC4 091603Z 15002KT 12/08 A3032 RMK A01 T01190084  RH  079%=      5-min Rain = 0
KMC4 091604Z 12001KT 12/09 A3032 RMK A01 T01200087  RH  080%=      5-min Rain = 0
KMC4 091605Z 10001KT 12/08 A3032 RMK A01 T01210084  RH  078%=      5-min Rain = 0
KMC4 091606Z 12002KT 12/08 A3032 RMK A01 T01220083  RH  077%=      5-min Rain = 0
KMC4 091607Z 14004KT 12/08 A3032 RMK A01 T01220083  RH  077%=      5-min Rain = 0
KMC4 091608Z 14003KT 12/08 A3032 RMK A01 T01230083  RH  076%=      5-min Rain = 0
KMC4 091609Z 15002KT 12/09 A3032 RMK A01 T01230086  RH  078%=      5-min Rain = 0
KMC4 091610Z 21002KT 12/09 A3032 RMK A01 T01240086  RH  077%=      5-min Rain = 0
KMC4 091611Z 17002KT 12/09 A3032 RMK A01 T01240085  RH  077%=      5-min Rain = 0
KMC4 091612Z 15003KT 12/09 A3031 RMK A01 T01240087  RH  078%=      5-min Rain = 0
KMC4 091613Z 13003KT 13/09 A3031 RMK A01 T01250086  RH  077%=      5-min Rain = 0
KMC4 091614Z 14003KT 13/09 A3031 RMK A01 T01260085  RH  076%=      5-min Rain = 0
KMC4 091615Z 13004KT 13/08 A3031 RMK A01 T01270084  RH  076%=      5-min Rain = 0
KMC4 091616Z 13004KT 13/08 A3031 RMK A01 T01260083  RH  075%=      5-min Rain = 0
KMC4 091617Z 15003KT 13/08 A3031 RMK A01 T01250084  RH  076%=      5-min Rain = 0
KMC4 091618Z 16005KT 13/09 A3031 RMK A01 T01250085  RH  076%=      5-min Rain = 0
KMC4 091619Z 14004KT 13/08 A3031 RMK A01 T01250084  RH  076%=      5-min Rain = 0
KMC4 091620Z 13003KT 12/08 A3031 RMK A01 T01240082  RH  075%=      5-min Rain = 0
KMC4 091621Z 16004KT 12/08 A3031 RMK A01 T01240084  RH  076%=      5-min Rain = 0
KMC4 091622Z 16002KT 12/08 A3031 RMK A01 T01240084  RH  077%=      5-min Rain = 0
KMC4 091623Z 16002KT 12/08 A3031 RMK A01 T01240084  RH  077%=      5-min Rain = 0
KMC4 091624Z 14004KT 12/09 A3031 RMK A01 T01240085  RH  077%=      5-min Rain = 0
KMC4 091625Z 12003KT 13/08 A3031 RMK A01 T01250083  RH  076%=      5-min Rain = 0
KMC4 091626Z 12004KT 13/08 A3031 RMK A01 T01250084  RH  076%=      5-min Rain = 0
KMC4 091627Z 11003KT 13/09 A3031 RMK A01 T01260086  RH  077%=      5-min Rain = 0
KMC4 091628Z 12004KT 13/09 A3031 RMK A01 T01260085  RH  076%=      5-min Rain = 0
KMC4 091629Z 12004KT 13/09 A3031 RMK A01 T01260086  RH  076%=      5-min Rain = 0
KMC4 091630Z 11003KT 13/08 A3031 RMK A01 T01260084  RH  076%=      5-min Rain = 0
KMC4 091631Z 15004KT 13/09 A3031 RMK A01 T01260085  RH  076%=      5-min Rain = 0
KMC4 091632Z 16003KT 13/09 A3031 RMK A01 T01260085  RH  076%=      5-min Rain = 0
KMC4 091633Z 17002KT 13/09 A3031 RMK A01 T01270086  RH  076%=      5-min Rain = 0
KMC4 091634Z 16001KT 13/09 A3031 RMK A01 T01270085  RH  075%=      5-min Rain = 0
KMC4 091635Z 16002KT 13/09 A3031 RMK A01 T01280087  RH  076%=      5-min Rain = 0
KMC4 091636Z 14001KT 13/09 A3031 RMK A01 T01280085  RH  075%=      5-min Rain = 0
KMC4 091637Z 07001KT 13/08 A3031 RMK A01 T01290084  RH  074%=      5-min Rain = 0
KMC4 091638Z 14002KT 13/09 A3031 RMK A01 T01300087  RH  075%=      5-min Rain = 0
KMC4 091639Z 11004KT 13/09 A3031 RMK A01 T01320093  RH  077%=      5-min Rain = 0
KMC4 091640Z 10004KT 13/09 A3031 RMK A01 T01330092  RH  076%=      5-min Rain = 0
KMC4 091641Z 11003KT 13/09 A3031 RMK A01 T01330089  RH  075%=      5-min Rain = 0
KMC4 091642Z 11003KT 13/09 A3031 RMK A01 T01310087  RH  074%=      5-min Rain = 0
KMC4 091643Z 10002KT 13/09 A3031 RMK A01 T01300085  RH  074%=      5-min Rain = 0
KMC4 091644Z 11002KT 13/09 A3031 RMK A01 T01290086  RH  075%=      5-min Rain = 0
KMC4 091645Z 08002KT 13/09 A3031 RMK A01 T01300087  RH  075%=      5-min Rain = 0
KMC4 091646Z 07001KT 13/09 A3031 RMK A01 T01300086  RH  075%=      5-min Rain = 0
KMC4 091647Z 12002KT 13/09 A3031 RMK A01 T01300088  RH  076%=      5-min Rain = 0
KMC4 091648Z 13003KT 13/09 A3031 RMK A01 T01320089  RH  075%=      5-min Rain = 0
KMC4 091649Z 11003KT 13/09 A3031 RMK A01 T01320088  RH  074%=      5-min Rain = 0
KMC4 091650Z 08001KT 13/09 A3031 RMK A01 T01330090  RH  075%=      5-min Rain = 0
KMC4 091651Z 12004KT 13/09 A3031 RMK A01 T01340091  RH  075%=      5-min Rain = 0
KMC4 091652Z 12004KT 14/09 A3031 RMK A01 T01350092  RH  075%=      5-min Rain = 0
KMC4 091653Z 12004KT 14/09 A3031 RMK A01 T01350092  RH  075%=      5-min Rain = 0
KMC4 091654Z 14003KT 14/09 A3031 RMK A01 T01350091  RH  075%=      5-min Rain = 0
KMC4 091655Z 15002KT 14/09 A3031 RMK A01 T01360093  RH  075%=      5-min Rain = 0
KMC4 091656Z 17003KT 14/09 A3031 RMK A01 T01370091  RH  074%=      5-min Rain = 0
KMC4 091657Z 18003KT 14/09 A303 RMK A01 T01370088  RH  072%=      5-min Rain = 0
KMC4 091658Z 17002KT 14/09 A303 RMK A01 T01360089  RH  073%=      5-min Rain = 0
KMC4 091659Z 15003KT 14/09 A303 RMK A01 T01370093  RH  075%=      5-min Rain = 0
KMC4 091700Z 13005KT 14/09 A303 RMK A01 T01390093  RH  074%=      5-min Rain = 0
KMC4 091701Z 12003KT 14/09 A303 RMK A01 T01390089  RH  072%=      5-min Rain = 0
KMC4 091702Z 17002KT 14/09 A303 RMK A01 T01390091  RH  073%=      5-min Rain = 0
KMC4 091703Z 20001KT 14/09 A303 RMK A01 T01390090  RH  072%=      5-min Rain = 0
KMC4 091704Z 16003KT 14/09 A303 RMK A01 T01400092  RH  073%=      5-min Rain = 0
KMC4 091705Z 17004KT 14/09 A303 RMK A01 T01410093  RH  073%=      5-min Rain = 0
KMC4 091706Z 15004KT 14/09 A303 RMK A01 T01420091  RH  071%=      5-min Rain = 0
KMC4 091707Z 14005KT 14/09 A303 RMK A01 T01410094  RH  073%=      5-min Rain = 0
KMC4 091708Z 14003KT 14/09 A303 RMK A01 T01410090  RH  071%=      5-min Rain = 0
KMC4 091709Z 16004KT 14/09 A303 RMK A01 T01420091  RH  072%=      5-min Rain = 0
KMC4 091710Z 15003KT 14/09 A303 RMK A01 T01420094  RH  073%=      5-min Rain = 0
KMC4 091711Z 13005KT 14/09 A303 RMK A01 T01430092  RH  071%=      5-min Rain = 0
KMC4 091712Z 14004KT 14/09 A303 RMK A01 T01430092  RH  071%=      5-min Rain = 0
KMC4 091713Z 17002KT 14/09 A303 RMK A01 T01430091  RH  071%=      5-min Rain = 0
KMC4 091714Z 23002KT 14/09 A303 RMK A01 T01430089  RH  070%=      5-min Rain = 0
KMC4 091715Z 13002KT 14/09 A303 RMK A01 T01430092  RH  071%=      5-min Rain = 0
KMC4 091716Z 13004KT 14/10 A303 RMK A01 T01440095  RH  072%=      5-min Rain = 0
KMC4 091717Z 17004KT 15/09 A303 RMK A01 T01450093  RH  071%=      5-min Rain = 0
KMC4 091718Z 16002KT 15/09 A303 RMK A01 T01450091  RH  070%=      5-min Rain = 0
KMC4 091719Z 18004KT 15/09 A303 RMK A01 T01450092  RH  071%=      5-min Rain = 0
KMC4 091720Z 16005KT 15/10 A303 RMK A01 T01470096  RH  072%=      5-min Rain = 0
KMC4 091721Z 16004KT 15/09 A303 RMK A01 T01480094  RH  070%=      5-min Rain = 0
KMC4 091722Z 15001KT 15/09 A303 RMK A01 T01480092  RH  069%=      5-min Rain = 0
KMC4 091723Z 16002KT 15/09 A303 RMK A01 T01490094  RH  069%=      5-min Rain = 0
KMC4 091724Z 15002KT 15/10 A303 RMK A01 T01510095  RH  069%=      5-min Rain = 0
KMC4 091725Z 15005KT 15/09 A3029 RMK A01 T01510094  RH  068%=      5-min Rain = 0
KMC4 091726Z 19004KT 15/10 A3029 RMK A01 T01510095  RH  069%=      5-min Rain = 0
KMC4 091727Z 19003KT 15/10 A3029 RMK A01 T01500095  RH  070%=      5-min Rain = 0
KMC4 091728Z 13003KT 15/10 A3029 RMK A01 T01500099  RH  071%=      5-min Rain = 0
KMC4 091729Z 12004KT 15/10 A3029 RMK A01 T01500096  RH  070%=      5-min Rain = 0
KMC4 091730Z 11005KT 15/10 A3029 RMK A01 T01490095  RH  070%=      5-min Rain = 0
KMC4 091731Z 11004KT 15/10 A3029 RMK A01 T01480096  RH  071%=      5-min Rain = 0
KMC4 091732Z 11004KT 15/09 A3029 RMK A01 T01480093  RH  070%=      5-min Rain = 0
KMC4 091733Z 11006KT 15/10 A3029 RMK A01 T01480098  RH  072%=      5-min Rain = 0
KMC4 091734Z 13006KT 15/10 A3029 RMK A01 T01500102  RH  073%=      5-min Rain = 0
KMC4 091735Z 13005KT 15/10 A3028 RMK A01 T01500097  RH  070%=      5-min Rain = 0
KMC4 091736Z 15002KT 15/09 A3028 RMK A01 T01500094  RH  069%=      5-min Rain = 0
KMC4 091737Z 15001KT 15/10 A3028 RMK A01 T01510095  RH  069%=      5-min Rain = 0
KMC4 091738Z 09000KT 15/10 A3028 RMK A01 T01520095  RH  068%=      5-min Rain = 0
KMC4 091739Z 09003KT 15/10 A3028 RMK A01 T01540096  RH  069%=      5-min Rain = 0
KMC4 091740Z 14005KT 15/10 A3028 RMK A01 T01540101  RH  070%=      5-min Rain = 0
KMC4 091741Z 14006KT 16/10 A3028 RMK A01 T01550098  RH  069%=      5-min Rain = 0
KMC4 091742Z 13004KT 16/10 A3028 RMK A01 T01550101  RH  070%=      5-min Rain = 0
KMC4 091743Z 14001KT 16/09 A3028 RMK A01 T01550094  RH  067%=      5-min Rain = 0
KMC4 091744Z 13001KT 15/09 A3028 RMK A01 T01540094  RH  067%=      5-min Rain = 0
KMC4 091745Z 11003KT 15/10 A3028 RMK A01 T01540098  RH  069%=      5-min Rain = 0
KMC4 091746Z 13005KT 16/10 A3028 RMK A01 T01550099  RH  069%=      5-min Rain = 0
KMC4 091747Z 13004KT 16/10 A3028 RMK A01 T01550100  RH  070%=      5-min Rain = 0
KMC4 091748Z 12004KT 15/10 A3028 RMK A01 T01540097  RH  068%=      5-min Rain = 0
KMC4 091749Z 11003KT 15/09 A3028 RMK A01 T01530094  RH  068%=      5-min Rain = 0
KMC4 091750Z 09004KT 15/10 A3028 RMK A01 T01520098  RH  070%=      5-min Rain = 0
KMC4 091751Z 10003KT 15/10 A3027 RMK A01 T01530101  RH  071%=      5-min Rain = 0
KMC4 091752Z 09002KT 15/10 A3027 RMK A01 T01530098  RH  070%=      5-min Rain = 0
KMC4 091753Z 09002KT 15/10 A3027 RMK A01 T01540097  RH  069%=      5-min Rain = 0
KMC4 091754Z 14004G9KT 15/10 A3027 RMK A01 T01540100  RH  070%=      5-min Rain = 0
KMC4 091755Z 13004KT 16/10 A3027 RMK A01 T01550098  RH  069%=      5-min Rain = 0
KMC4 091756Z 16003KT 15/10 A3027 RMK A01 T01540097  RH  069%=      5-min Rain = 0
KMC4 091757Z 18003KT 15/10 A3027 RMK A01 T01540098  RH  069%=      5-min Rain = 0
KMC4 091758Z 18004KT 16/10 A3027 RMK A01 T01550102  RH  071%=      5-min Rain = 0
KMC4 091759Z 15003KT 16/10 A3027 RMK A01 T01570104  RH  071%=      5-min Rain = 0
KMC4 091800Z 14003KT 16/10 A3027 RMK A01 T01570098  RH  068%=      5-min Rain = 0
KMC4 091801Z 11003KT 16/10 A3027 RMK A01 T01570101  RH  069%=      5-min Rain = 0
KMC4 091802Z 10004KT 16/10 A3027 RMK A01 T01590102  RH  069%=      5-min Rain = 0
KMC4 091803Z 10005KT 16/10 A3027 RMK A01 T01590100  RH  068%=      5-min Rain = 0
KMC4 091804Z 12004KT 16/10 A3027 RMK A01 T01580102  RH  069%=      5-min Rain = 0
KMC4 091805Z 11003KT 16/11 A3026 RMK A01 T01590106  RH  071%=      5-min Rain = 0
KMC4 091806Z 13004KT 16/10 A3026 RMK A01 T01600104  RH  069%=      5-min Rain = 0
KMC4 091807Z 15003KT 16/10 A3026 RMK A01 T01600101  RH  068%=      5-min Rain = 0
KMC4 091808Z 12005KT 16/11 A3026 RMK A01 T01610105  RH  070%=      5-min Rain = 0
KMC4 091809Z 11004KT 16/10 A3026 RMK A01 T01610102  RH  068%=      5-min Rain = 0
KMC4 091810Z 09003KT 16/10 A3026 RMK A01 T01610104  RH  069%=      5-min Rain = 0
KMC4 091811Z 09005KT 16/10 A3026 RMK A01 T01610104  RH  069%=      5-min Rain = 0
KMC4 091812Z 08004KT 16/10 A3026 RMK A01 T01610099  RH  067%=      5-min Rain = 0
KMC4 091813Z 07003KT 16/10 A3026 RMK A01 T01590099  RH  068%=      5-min Rain = 0
KMC4 091814Z 11004KT 16/10 A3026 RMK A01 T01590103  RH  069%=      5-min Rain = 0
KMC4 091815Z 11004KT 16/10 A3026 RMK A01 T01610104  RH  069%=      5-min Rain = 0
KMC4 091816Z 11004KT 16/10 A3026 RMK A01 T01620104  RH  068%=      5-min Rain = 0
KMC4 091817Z 11004KT 16/11 A3026 RMK A01 T01630105  RH  069%=      5-min Rain = 0
KMC4 091818Z 15005KT 16/10 A3026 RMK A01 T01630104  RH  068%=      5-min Rain = 0
KMC4 091819Z 16005KT 16/10 A3026 RMK A01 T01630101  RH  067%=      5-min Rain = 0
KMC4 091820Z 17004KT 16/10 A3026 RMK A01 T01640103  RH  067%=      5-min Rain = 0
KMC4 091821Z 15004KT 16/10 A3026 RMK A01 T01640103  RH  067%=      5-min Rain = 0
KMC4 091822Z 14005KT 17/10 A3026 RMK A01 T01650103  RH  067%=      5-min Rain = 0
KMC4 091823Z 16004KT 17/10 A3026 RMK A01 T01650101  RH  066%=      5-min Rain = 0
KMC4 091824Z 15003G8KT 17/10 A3026 RMK A01 T01650101  RH  066%=      5-min Rain = 0
KMC4 091825Z 18005KT 17/10 A3026 RMK A01 T01660104  RH  067%=      5-min Rain = 0
KMC4 091826Z 18004KT 17/10 A3026 RMK A01 T01670103  RH  066%=      5-min Rain = 0
KMC4 091827Z 15004KT 17/10 A3026 RMK A01 T01670104  RH  066%=      5-min Rain = 0
KMC4 091828Z 14005KT 17/11 A3026 RMK A01 T01680105  RH  066%=      5-min Rain = 0
KMC4 091829Z 15004KT 17/10 A3026 RMK A01 T01680103  RH  065%=      5-min Rain = 0
KMC4 091830Z 14003KT 17/10 A3025 RMK A01 T01680102  RH  065%=      5-min Rain = 0
KMC4 091831Z 15005KT 17/10 A3025 RMK A01 T01680102  RH  065%=      5-min Rain = 0
KMC4 091832Z 15005KT 17/10 A3025 RMK A01 T01690104  RH  065%=      5-min Rain = 0
KMC4 091833Z 22002KT 17/10 A3025 RMK A01 T01690103  RH  065%=      5-min Rain = 0
KMC4 091834Z 15002G7KT 17/10 A3025 RMK A01 T01690102  RH  065%=      5-min Rain = 0
KMC4 091835Z 13004KT 17/10 A3025 RMK A01 T01690104  RH  065%=      5-min Rain = 0
KMC4 091836Z 15004KT 17/11 A3025 RMK A01 T01700105  RH  066%=      5-min Rain = 0
KMC4 091837Z 14006KT 17/10 A3025 RMK A01 T01700103  RH  065%=      5-min Rain = 0
KMC4 091838Z 14006KT 17/10 A3025 RMK A01 T01700104  RH  065%=      5-min Rain = 0
KMC4 091839Z 13004KT 17/10 A3025 RMK A01 T01700102  RH  064%=      5-min Rain = 0
KMC4 091840Z 13003KT 17/10 A3025 RMK A01 T01690100  RH  064%=      5-min Rain = 0
KMC4 091841Z 12004KT 17/10 A3025 RMK A01 T01680102  RH  065%=      5-min Rain = 0
KMC4 091842Z 15007KT 17/11 A3025 RMK A01 T01700109  RH  067%=      5-min Rain = 0
KMC4 091843Z 16004KT 17/10 A3025 RMK A01 T01710103  RH  064%=      5-min Rain = 0
KMC4 091844Z 15002KT 17/10 A3025 RMK A01 T01710101  RH  063%=      5-min Rain = 0
KMC4 091845Z 14005KT 17/11 A3025 RMK A01 T01710105  RH  065%=      5-min Rain = 0
KMC4 091846Z 17005KT 17/10 A3025 RMK A01 T01720104  RH  064%=      5-min Rain = 0
KMC4 091847Z 17006KT 17/11 A3025 RMK A01 T01730107  RH  065%=      5-min Rain = 0
KMC4 091848Z 15006KT 17/11 A3024 RMK A01 T01730106  RH  064%=      5-min Rain = 0
KMC4 091849Z 14005KT 17/11 A3024 RMK A01 T01740105  RH  064%=      5-min Rain = 0
KMC4 091850Z 14003KT 17/11 A3024 RMK A01 T01740105  RH  064%=      5-min Rain = 0
KMC4 091851Z 19003KT 17/11 A3024 RMK A01 T01740105  RH  064%=      5-min Rain = 0
KMC4 091852Z 14003KT 17/10 A3024 RMK A01 T01740103  RH  063%=      5-min Rain = 0
KMC4 091853Z 13006KT 17/11 A3024 RMK A01 T01740109  RH  065%=      5-min Rain = 0
KMC4 091854Z 12006KT 18/11 A3024 RMK A01 T01750109  RH  065%=      5-min Rain = 0
KMC4 091855Z 08004KT 18/11 A3024 RMK A01 T01750106  RH  064%=      5-min Rain = 0
KMC4 091856Z 12003KT 17/11 A3024 RMK A01 T01740108  RH  065%=      5-min Rain = 0
KMC4 091857Z 15004KT 18/11 A3024 RMK A01 T01760114  RH  067%=      5-min Rain = 0
KMC4 091858Z 14005KT 18/11 A3024 RMK A01 T01770108  RH  064%=      5-min Rain = 0
KMC4 091859Z 11005KT 18/11 A3023 RMK A01 T01780110  RH  064%=      5-min Rain = 0
KMC4 091900Z 11006KT 18/11 A3023 RMK A01 T01780110  RH  064%=      5-min Rain = 0
KMC4 091901Z 10006KT 18/11 A3023 RMK A01 T01780107  RH  063%=      5-min Rain = 0
KMC4 091902Z 10004KT 18/11 A3023 RMK A01 T01760106  RH  063%=      5-min Rain = 0
KMC4 091903Z 12006KT 18/11 A3023 RMK A01 T01760110  RH  065%=      5-min Rain = 0
KMC4 091904Z 10004KT 18/11 A3023 RMK A01 T01770107  RH  064%=      5-min Rain = 0
KMC4 091905Z 14005KT 18/11 A3023 RMK A01 T01770112  RH  066%=      5-min Rain = 0
KMC4 091906Z 16005KT 18/11 A3023 RMK A01 T01790108  RH  063%=      5-min Rain = 0
KMC4 091907Z 13005KT 18/11 A3023 RMK A01 T01790107  RH  063%=      5-min Rain = 0
KMC4 091908Z 12004KT 18/11 A3023 RMK A01 T01790107  RH  063%=      5-min Rain = 0
KMC4 091909Z 13005KT 18/11 A3023 RMK A01 T01790108  RH  063%=      5-min Rain = 0
KMC4 091910Z 15004KT 18/11 A3023 RMK A01 T01780106  RH  063%=      5-min Rain = 0
KMC4 091911Z 16003KT 18/11 A3023 RMK A01 T01780109  RH  064%=      5-min Rain = 0
KMC4 091912Z 19002KT 18/11 A3023 RMK A01 T01800106  RH  062%=      5-min Rain = 0
KMC4 091913Z 22000KT 18/11 A3023 RMK A01 T01810107  RH  062%=      5-min Rain = 0
KMC4 091914Z 14002KT 18/11 A3023 RMK A01 T01840106  RH  061%=      5-min Rain = 0
KMC4 091915Z 13004KT 19/11 A3023 RMK A01 T01850109  RH  061%=      5-min Rain = 0
KMC4 091916Z 17004KT 19/11 A3023 RMK A01 T01860113  RH  062%=      5-min Rain = 0
KMC4 091917Z 16005KT 19/11 A3023 RMK A01 T01850105  RH  060%=      5-min Rain = 0
KMC4 091918Z 17003KT 18/11 A3023 RMK A01 T01840107  RH  061%=      5-min Rain = 0
KMC4 091919Z 14000KT 18/11 A3023 RMK A01 T01840107  RH  061%=      5-min Rain = 0
KMC4 091920Z 14001KT 19/11 A3022 RMK A01 T01850108  RH  061%=      5-min Rain = 0
KMC4 091921Z 13003KT 19/11 A3022 RMK A01 T01870112  RH  062%=      5-min Rain = 0
KMC4 091922Z 13003KT 19/11 A3022 RMK A01 T01890113  RH  061%=      5-min Rain = 0
KMC4 091923Z 12003KT 19/11 A3022 RMK A01 T01890111  RH  061%=      5-min Rain = 0
KMC4 091924Z 12005KT 19/11 A3022 RMK A01 T01880108  RH  060%=      5-min Rain = 0
KMC4 091925Z 12004KT 19/11 A3022 RMK A01 T01860110  RH  061%=      5-min Rain = 0
KMC4 091926Z 12005KT 19/11 A3022 RMK A01 T01850109  RH  061%=      5-min Rain = 0
KMC4 091927Z 11003KT 18/11 A3022 RMK A01 T01840107  RH  061%=      5-min Rain = 0
KMC4 091928Z 10001KT 18/11 A3022 RMK A01 T01840108  RH  061%=      5-min Rain = 0
KMC4 091929Z 17003KT 18/11 A3022 RMK A01 T01840110  RH  062%=      5-min Rain = 0
KMC4 091930Z 12006KT 19/11 A3021 RMK A01 T01860111  RH  062%=      5-min Rain = 0
KMC4 091931Z 13006KT 19/11 A3021 RMK A01 T01860110  RH  061%=      5-min Rain = 0
KMC4 091932Z 15005KT 19/11 A3021 RMK A01 T01860110  RH  061%=      5-min Rain = 0
KMC4 091933Z 16003KT 19/11 A3021 RMK A01 T01860111  RH  061%=      5-min Rain = 0
KMC4 091934Z 17005KT 19/11 A3021 RMK A01 T01870109  RH  061%=      5-min Rain = 0
KMC4 091935Z 16004KT 19/11 A3021 RMK A01 T01870108  RH  060%=      5-min Rain = 0
KMC4 091936Z 15005KT 19/11 A3021 RMK A01 T01870109  RH  060%=      5-min Rain = 0
KMC4 091937Z 16005KT 19/11 A3021 RMK A01 T01880110  RH  060%=      5-min Rain = 0
KMC4 091938Z 14005KT 19/11 A3021 RMK A01 T01890111  RH  060%=      5-min Rain = 0
KMC4 091939Z 15006KT 19/11 A3021 RMK A01 T01890112  RH  061%=      5-min Rain = 0
KMC4 091940Z 13003KT 19/11 A3021 RMK A01 T01900110  RH  060%=      5-min Rain = 0
KMC4 091941Z 13003KT 19/11 A302 RMK A01 T01900110  RH  060%=      5-min Rain = 0
KMC4 091942Z 14003KT 19/11 A302 RMK A01 T01900108  RH  059%=      5-min Rain = 0
KMC4 091943Z 16005KT 19/11 A302 RMK A01 T01900108  RH  059%=      5-min Rain = 0
KMC4 091944Z 17005KT 19/11 A302 RMK A01 T01900108  RH  059%=      5-min Rain = 0
KMC4 091945Z 13005KT 19/11 A302 RMK A01 T01900112  RH  060%=      5-min Rain = 0
KMC4 091946Z 13004KT 19/11 A302 RMK A01 T01910114  RH  061%=      5-min Rain = 0
KMC4 091947Z 16003KT 19/11 A302 RMK A01 T01910113  RH  061%=      5-min Rain = 0
KMC4 091948Z 19004KT 19/11 A302 RMK A01 T01910110  RH  059%=      5-min Rain = 0
KMC4 091949Z 17004KT 19/11 A302 RMK A01 T01920110  RH  059%=      5-min Rain = 0
KMC4 091950Z 17003KT 19/11 A302 RMK A01 T01910107  RH  058%=      5-min Rain = 0
KMC4 091951Z 16003KT 19/11 A302 RMK A01 T01910108  RH  059%=      5-min Rain = 0
KMC4 091952Z 20003KT 19/11 A302 RMK A01 T01900111  RH  060%=      5-min Rain = 0
KMC4 091953Z 20003KT 19/11 A302 RMK A01 T01910108  RH  059%=      5-min Rain = 0
KMC4 091954Z 22001KT 19/11 A302 RMK A01 T01910110  RH  059%=      5-min Rain = 0
KMC4 091955Z 17001KT 19/11 A302 RMK A01 T01910109  RH  059%=      5-min Rain = 0
KMC4 091956Z 16005KT 19/11 A302 RMK A01 T01920110  RH  059%=      5-min Rain = 0
KMC4 091957Z 14003KT 19/11 A302 RMK A01 T01930113  RH  059%=      5-min Rain = 0
KMC4 091958Z 12004KT 19/11 A302 RMK A01 T01940111  RH  059%=      5-min Rain = 0
KMC4 091959Z 12004KT 19/11 A302 RMK A01 T01940111  RH  059%=      5-min Rain = 0
KMC4 092000Z 13005KT 19/11 A302 RMK A01 T01930111  RH  059%=      5-min Rain = 0
KMC4 092001Z 13003KT 19/11 A302 RMK A01 T01920109  RH  059%=      5-min Rain = 0
KMC4 092002Z 12003KT 19/11 A3019 RMK A01 T01920110  RH  059%=      5-min Rain = 0
KMC4 092003Z 12002KT 19/11 A3019 RMK A01 T01910112  RH  060%=      5-min Rain = 0
KMC4 092004Z 09002KT 19/11 A3019 RMK A01 T01920111  RH  059%=      5-min Rain = 0
KMC4 092005Z 13001KT 19/11 A3019 RMK A01 T01920111  RH  059%=      5-min Rain = 0
KMC4 092006Z 20002KT 19/11 A3019 RMK A01 T01930110  RH  059%=      5-min Rain = 0
KMC4 092007Z 18002KT 19/11 A3019 RMK A01 T01940109  RH  058%=      5-min Rain = 0
KMC4 092008Z 15002KT 19/11 A3019 RMK A01 T01940109  RH  058%=      5-min Rain = 0
KMC4 092009Z 15002KT 20/11 A3019 RMK A01 T01950110  RH  058%=      5-min Rain = 0
KMC4 092010Z 08002KT 20/11 A3019 RMK A01 T01960110  RH  058%=      5-min Rain = 0
KMC4 092011Z 10002KT 20/11 A3019 RMK A01 T01950108  RH  057%=      5-min Rain = 0
KMC4 092012Z 10002KT 19/11 A3019 RMK A01 T01930108  RH  058%=      5-min Rain = 0
KMC4 092013Z 08002KT 19/11 A3019 RMK A01 T01920107  RH  058%=      5-min Rain = 0
KMC4 092014Z 09002KT 19/11 A3019 RMK A01 T01920113  RH  060%=      5-min Rain = 0
KMC4 092015Z 04001KT 19/11 A3019 RMK A01 T01920109  RH  058%=      5-min Rain = 0
KMC4 092016Z 06001KT 19/11 A3019 RMK A01 T01930109  RH  058%=      5-min Rain = 0
KMC4 092017Z 06001KT 19/11 A3019 RMK A01 T01930108  RH  058%=      5-min Rain = 0
KMC4 092018Z 04001KT 19/11 A3019 RMK A01 T01930109  RH  058%=      5-min Rain = 0
KMC4 092019Z 04002KT 19/11 A3018 RMK A01 T01930108  RH  058%=      5-min Rain = 0
KMC4 092020Z 02000KT 19/11 A3018 RMK A01 T01940112  RH  059%=      5-min Rain = 0
KMC4 092021Z 16002KT 20/11 A3018 RMK A01 T01960111  RH  058%=      5-min Rain = 0
KMC4 092022Z 15006KT 20/12 A3018 RMK A01 T01970116  RH  059%=      5-min Rain = 0
KMC4 092023Z 16003KT 20/11 A3018 RMK A01 T01990113  RH  058%=      5-min Rain = 0
KMC4 092024Z 14004KT 20/11 A3018 RMK A01 T01990112  RH  057%=      5-min Rain = 0
KMC4 092025Z 14003KT 20/11 A3018 RMK A01 T01980111  RH  057%=      5-min Rain = 0
KMC4 092026Z 11002KT 20/11 A3018 RMK A01 T01990110  RH  057%=      5-min Rain = 0
KMC4 092027Z 12003KT 20/11 A3018 RMK A01 T01980110  RH  057%=      5-min Rain = 0
KMC4 092028Z 12004KT 20/12 A3018 RMK A01 T01980115  RH  059%=      5-min Rain = 0
KMC4 092029Z 14006KT 20/12 A3018 RMK A01 T01980116  RH  059%=      5-min Rain = 0
KMC4 092030Z 13004KT 20/11 A3018 RMK A01 T01990114  RH  058%=      5-min Rain = 0
KMC4 092031Z 11004KT 20/11 A3018 RMK A01 T01970113  RH  058%=      5-min Rain = 0
KMC4 092032Z 12004KT 20/12 A3018 RMK A01 T01970115  RH  059%=      5-min Rain = 0
KMC4 092033Z 08002KT 20/12 A3018 RMK A01 T01960116  RH  060%=      5-min Rain = 0
KMC4 092034Z 07002KT 20/11 A3018 RMK A01 T01960112  RH  058%=      5-min Rain = 0
KMC4 092035Z 09002KT 20/12 A3018 RMK A01 T01960117  RH  060%=      5-min Rain = 0
KMC4 092036Z 10002KT 20/12 A3018 RMK A01 T01970115  RH  059%=      5-min Rain = 0
KMC4 092037Z 08003KT 20/11 A3018 RMK A01 T01980112  RH  058%=      5-min Rain = 0
KMC4 092038Z 06004KT 20/11 A3018 RMK A01 T01980112  RH  058%=      5-min Rain = 0
KMC4 092039Z 06002KT 20/11 A3018 RMK A01 T01970113  RH  058%=      5-min Rain = 0
KMC4 092040Z 06004KT 20/12 A3017 RMK A01 T01970118  RH  060%=      5-min Rain = 0
KMC4 092041Z 07004KT 20/12 A3017 RMK A01 T01990115  RH  058%=      5-min Rain = 0
KMC4 092042Z 08003KT 20/12 A3017 RMK A01 T01990116  RH  059%=      5-min Rain = 0
KMC4 092043Z 12003KT 20/12 A3017 RMK A01 T01990116  RH  059%=      5-min Rain = 0
KMC4 092044Z 14005KT 20/12 A3017 RMK A01 T02000120  RH  060%=      5-min Rain = 0
KMC4 092045Z 15006KT 20/12 A3017 RMK A01 T02020122  RH  060%=      5-min Rain = 0
KMC4 092046Z 15004KT 20/12 A3017 RMK A01 T02030117  RH  057%=      5-min Rain = 0
KMC4 092047Z 13005KT 20/12 A3017 RMK A01 T02030116  RH  057%=      5-min Rain = 0
KMC4 092048Z 13005KT 20/12 A3017 RMK A01 T02030118  RH  058%=      5-min Rain = 0
KMC4 092049Z 13006KT 20/12 A3017 RMK A01 T02030121  RH  059%=      5-min Rain = 0
KMC4 092050Z 11005KT 20/11 A3017 RMK A01 T02020114  RH  057%=      5-min Rain = 0
KMC4 092051Z 10003KT 20/11 A3017 RMK A01 T02010114  RH  057%=      5-min Rain = 0
KMC4 092052Z 09002KT 20/11 A3017 RMK A01 T01990112  RH  057%=      5-min Rain = 0
KMC4 092053Z 11001KT 20/11 A3017 RMK A01 T01990114  RH  058%=      5-min Rain = 0
KMC4 092054Z 17002KT 20/12 A3017 RMK A01 T02000116  RH  058%=      5-min Rain = 0
KMC4 092055Z 20003KT 20/12 A3017 RMK A01 T02020116  RH  058%=      5-min Rain = 0
KMC4 092056Z 16001KT 20/12 A3017 RMK A01 T02040119  RH  058%=      5-min Rain = 0
KMC4 092057Z 12005KT 21/12 A3017 RMK A01 T02050118  RH  057%=      5-min Rain = 0
KMC4 092058Z 11005KT 20/12 A3017 RMK A01 T02040117  RH  057%=      5-min Rain = 0
KMC4 092059Z 10003KT 20/12 A3017 RMK A01 T02030118  RH  058%=      5-min Rain = 0
KMC4 092100Z 09002KT 20/11 A3017 RMK A01 T02020114  RH  057%=      5-min Rain = 0
KMC4 092101Z 12002KT 20/11 A3017 RMK A01 T02010114  RH  057%=      5-min Rain = 0
KMC4 092102Z 15003KT 20/11 A3017 RMK A01 T02010114  RH  057%=      5-min Rain = 0
KMC4 092103Z 09004KT 20/12 A3017 RMK A01 T02020118  RH  058%=      5-min Rain = 0
KMC4 092104Z 07003KT 20/12 A3017 RMK A01 T02030116  RH  057%=      5-min Rain = 0
KMC4 092105Z 09002KT 20/12 A3017 RMK A01 T02030118  RH  058%=      5-min Rain = 0
KMC4 092106Z 15003KT 20/12 A3017 RMK A01 T02030120  RH  059%=      5-min Rain = 0
KMC4 092107Z 15005KT 20/12 A3017 RMK A01 T02040119  RH  058%=      5-min Rain = 0
KMC4 092108Z 14003KT 21/12 A3017 RMK A01 T02050116  RH  057%=      5-min Rain = 0
KMC4 092109Z 18003KT 21/12 A3017 RMK A01 T02050119  RH  058%=      5-min Rain = 0
KMC4 092110Z 18004KT 21/12 A3017 RMK A01 T02050116  RH  056%=      5-min Rain = 0
KMC4 092111Z 20003KT 21/12 A3017 RMK A01 T02050117  RH  057%=      5-min Rain = 0
KMC4 092112Z 15004KT 21/12 A3017 RMK A01 T02050120  RH  058%=      5-min Rain = 0
KMC4 092113Z 11004KT 21/12 A3017 RMK A01 T02060116  RH  056%=      5-min Rain = 0
KMC4 092114Z 08003KT 21/11 A3017 RMK A01 T02050114  RH  056%=      5-min Rain = 0
KMC4 092115Z 04003KT 20/12 A3016 RMK A01 T02040116  RH  057%=      5-min Rain = 0
KMC4 092116Z 05003KT 20/12 A3016 RMK A01 T02030117  RH  057%=      5-min Rain = 0
KMC4 092117Z 08002KT 20/12 A3016 RMK A01 T02030117  RH  057%=      5-min Rain = 0
KMC4 092118Z 16004KT 20/12 A3016 RMK A01 T02040117  RH  057%=      5-min Rain = 0
KMC4 092119Z 17004KT 20/12 A3016 RMK A01 T02040116  RH  057%=      5-min Rain = 0
KMC4 092120Z 16003KT 20/11 A3016 RMK A01 T02040114  RH  056%=      5-min Rain = 0
KMC4 092121Z 18002KT 20/11 A3016 RMK A01 T02040114  RH  056%=      5-min Rain = 0
KMC4 092122Z 19001KT 21/12 A3016 RMK A01 T02050116  RH  057%=      5-min Rain = 0
KMC4 092123Z 20001KT 21/12 A3016 RMK A01 T02070116  RH  056%=      5-min Rain = 0
KMC4 092124Z 11004KT 21/12 A3016 RMK A01 T02080118  RH  056%=      5-min Rain = 0
KMC4 092125Z 12004KT 21/12 A3016 RMK A01 T02090120  RH  057%=      5-min Rain = 0
KMC4 092126Z 12004KT 21/12 A3016 RMK A01 T02090122  RH  057%=      5-min Rain = 0
KMC4 092127Z 11004KT 21/12 A3016 RMK A01 T02080120  RH  057%=      5-min Rain = 0
KMC4 092128Z 12003KT 21/12 A3016 RMK A01 T02070117  RH  056%=      5-min Rain = 0
KMC4 092129Z 11004KT 21/12 A3016 RMK A01 T02070118  RH  057%=      5-min Rain = 0
KMC4 092130Z 10003KT 21/12 A3016 RMK A01 T02060118  RH  057%=      5-min Rain = 0
KMC4 092131Z 10004KT 21/12 A3016 RMK A01 T02060116  RH  056%=      5-min Rain = 0
KMC4 092132Z 09003KT 21/12 A3016 RMK A01 T02050118  RH  057%=      5-min Rain = 0
KMC4 092133Z 09004KT 21/12 A3016 RMK A01 T02050116  RH  057%=      5-min Rain = 0
KMC4 092134Z 12004KT 21/12 A3016 RMK A01 T02050118  RH  057%=      5-min Rain = 0
KMC4 092135Z 11003KT 21/12 A3016 RMK A01 T02050116  RH  056%=      5-min Rain = 0
KMC4 092136Z 10002KT 21/12 A3016 RMK A01 T02050115  RH  056%=      5-min Rain = 0
KMC4 092137Z 11002KT 21/12 A3016 RMK A01 T02050119  RH  058%=      5-min Rain = 0
KMC4 092138Z 20001KT 21/12 A3016 RMK A01 T02060116  RH  056%=      5-min Rain = 0
KMC4 092139Z 09002KT 21/12 A3016 RMK A01 T02080118  RH  056%=      5-min Rain = 0
KMC4 092140Z 08001KT 21/12 A3016 RMK A01 T02090121  RH  057%=      5-min Rain = 0
KMC4 092141Z 09003KT 21/12 A3016 RMK A01 T02090118  RH  056%=      5-min Rain = 0
KMC4 092142Z 08003KT 21/12 A3016 RMK A01 T02090115  RH  055%=      5-min Rain = 0
KMC4 092143Z 06003KT 21/12 A3016 RMK A01 T02070116  RH  056%=      5-min Rain = 0
KMC4 092144Z 13003KT 21/12 A3016 RMK A01 T02070119  RH  057%=      5-min Rain = 0
KMC4 092145Z 15003KT 21/12 A3016 RMK A01 T02070118  RH  057%=      5-min Rain = 0
KMC4 092146Z 16004KT 21/12 A3016 RMK A01 T02080116  RH  056%=      5-min Rain = 0
KMC4 092147Z 16003KT 21/12 A3016 RMK A01 T02080116  RH  055%=      5-min Rain = 0
KMC4 092148Z 20002KT 21/12 A3015 RMK A01 T02080117  RH  056%=      5-min Rain = 0
KMC4 092149Z 16003KT 21/12 A3015 RMK A01 T02090116  RH  055%=      5-min Rain = 0
KMC4 092150Z 14003KT 21/12 A3015 RMK A01 T02100118  RH  056%=      5-min Rain = 0
KMC4 092151Z 16003KT 21/12 A3015 RMK A01 T02110119  RH  056%=      5-min Rain = 0
KMC4 092152Z 17004KT 21/12 A3015 RMK A01 T02110117  RH  055%=      5-min Rain = 0
KMC4 092153Z 18003KT 21/12 A3015 RMK A01 T02110117  RH  055%=      5-min Rain = 0
KMC4 092154Z 19004KT 21/12 A3015 RMK A01 T02100118  RH  056%=      5-min Rain = 0
KMC4 092155Z 16003KT 21/12 A3015 RMK A01 T02100119  RH  056%=      5-min Rain = 0
KMC4 092156Z 14006KT 21/12 A3015 RMK A01 T02110121  RH  056%=      5-min Rain = 0
KMC4 092157Z 13006KT 21/12 A3015 RMK A01 T02120118  RH  055%=      5-min Rain = 0
KMC4 092158Z 10004KT 21/12 A3015 RMK A01 T02110119  RH  055%=      5-min Rain = 0
KMC4 092159Z 10003KT 21/12 A3015 RMK A01 T02100117  RH  055%=      5-min Rain = 0
KMC4 092200Z 10004KT 21/12 A3015 RMK A01 T02100120  RH  056%=      5-min Rain = 0
KMC4 092201Z 11004KT 21/12 A3015 RMK A01 T02100117  RH  055%=      5-min Rain = 0
KMC4 092202Z 12004KT 21/12 A3015 RMK A01 T02100118  RH  056%=      5-min Rain = 0
KMC4 092203Z 10005KT 21/12 A3015 RMK A01 T02100119  RH  056%=      5-min Rain = 0
KMC4 092204Z 09006KT 21/12 A3015 RMK A01 T02100119  RH  056%=      5-min Rain = 0
KMC4 092205Z 09006KT 21/12 A3015 RMK A01 T02110121  RH  056%=      5-min Rain = 0
KMC4 092206Z 09005KT 21/12 A3015 RMK A01 T02120121  RH  056%=      5-min Rain = 0
KMC4 092207Z 10006KT 21/12 A3015 RMK A01 T02110118  RH  055%=      5-min Rain = 0
KMC4 092208Z 11005KT 21/12 A3015 RMK A01 T02110120  RH  056%=      5-min Rain = 0
KMC4 092209Z 12005KT 21/12 A3015 RMK A01 T02110120  RH  056%=      5-min Rain = 0
KMC4 092210Z 13004KT 21/12 A3015 RMK A01 T02110121  RH  056%=      5-min Rain = 0
KMC4 092211Z 12005KT 21/12 A3015 RMK A01 T02110117  RH  055%=      5-min Rain = 0
KMC4 092212Z 13004KT 21/12 A3015 RMK A01 T02110118  RH  055%=      5-min Rain = 0
KMC4 092213Z 14003KT 21/12 A3015 RMK A01 T02100117  RH  055%=      5-min Rain = 0
KMC4 092214Z 12003KT 21/12 A3015 RMK A01 T02110116  RH  055%=      5-min Rain = 0
KMC4 092215Z 09004KT 21/12 A3015 RMK A01 T02110118  RH  055%=      5-min Rain = 0
KMC4 092216Z 09003KT 21/12 A3015 RMK A01 T02110117  RH  055%=      5-min Rain = 0
KMC4 092217Z 14003KT 21/12 A3015 RMK A01 T02110119  RH  056%=      5-min Rain = 0
KMC4 092218Z 17002KT 21/12 A3015 RMK A01 T02120116  RH  055%=      5-min Rain = 0
KMC4 092219Z 14002KT 21/12 A3014 RMK A01 T02120116  RH  054%=      5-min Rain = 0
KMC4 092220Z 14003KT 21/12 A3014 RMK A01 T02130120  RH  055%=      5-min Rain = 0
KMC4 092221Z 15006KT 21/12 A3014 RMK A01 T02130120  RH  055%=      5-min Rain = 0
KMC4 092222Z 14007KT 21/12 A3014 RMK A01 T02130117  RH  054%=      5-min Rain = 0
KMC4 092223Z 14006KT 21/12 A3014 RMK A01 T02130120  RH  055%=      5-min Rain = 0
KMC4 092224Z 13006KT 21/12 A3014 RMK A01 T02130120  RH  055%=      5-min Rain = 0
KMC4 092225Z 14006KT 21/12 A3014 RMK A01 T02130120  RH  055%=      5-min Rain = 0
KMC4 092226Z 14005KT 21/12 A3014 RMK A01 T02130119  RH  055%=      5-min Rain = 0
KMC4 092227Z 14005KT 21/12 A3014 RMK A01 T02120118  RH  055%=      5-min Rain = 0
KMC4 092228Z 16004KT 21/12 A3015 RMK A01 T02130117  RH  054%=      5-min Rain = 0
KMC4 092229Z 16005KT 21/12 A3014 RMK A01 T02120119  RH  055%=      5-min Rain = 0
KMC4 092230Z 16006KT 21/12 A3014 RMK A01 T02120118  RH  055%=      5-min Rain = 0
KMC4 092231Z 15006KT 21/12 A3014 RMK A01 T02120119  RH  055%=      5-min Rain = 0
KMC4 092232Z 16006KT 21/12 A3014 RMK A01 T02120120  RH  055%=      5-min Rain = 0
KMC4 092233Z 15006KT 21/12 A3014 RMK A01 T02130120  RH  055%=      5-min Rain = 0
KMC4 092234Z 14005KT 21/12 A3014 RMK A01 T02130117  RH  054%=      5-min Rain = 0
KMC4 092235Z 14004KT 21/12 A3014 RMK A01 T02130121  RH  056%=      5-min Rain = 0
KMC4 092236Z 13003KT 21/12 A3014 RMK A01 T02130118  RH  055%=      5-min Rain = 0
KMC4 092237Z 12002KT 21/12 A3014 RMK A01 T02130120  RH  055%=      5-min Rain = 0
KMC4 092238Z 12004KT 21/12 A3014 RMK A01 T02130119  RH  055%=      5-min Rain = 0
KMC4 092239Z 14003KT 21/12 A3014 RMK A01 T02120119  RH  055%=      5-min Rain = 0
KMC4 092240Z 15004KT 21/12 A3014 RMK A01 T02120118  RH  055%=      5-min Rain = 0
KMC4 092241Z 14003KT 21/12 A3014 RMK A01 T02120121  RH  056%=      5-min Rain = 0
KMC4 092242Z 13003KT 21/12 A3014 RMK A01 T02130123  RH  057%=      5-min Rain = 0
KMC4 092243Z 12002KT 21/12 A3014 RMK A01 T02130122  RH  056%=      5-min Rain = 0
KMC4 092244Z 15002KT 21/12 A3014 RMK A01 T02130121  RH  055%=      5-min Rain = 0
KMC4 092245Z 16003KT 21/12 A3014 RMK A01 T02130117  RH  054%=      5-min Rain = 0
KMC4 092246Z 15002KT 21/12 A3014 RMK A01 T02130119  RH  055%=      5-min Rain = 0
KMC4 092247Z 14005KT 21/12 A3014 RMK A01 T02130119  RH  055%=      5-min Rain = 0
KMC4 092248Z 14005KT 21/12 A3014 RMK A01 T02130122  RH  056%=      5-min Rain = 0
KMC4 092249Z 13005KT 21/12 A3014 RMK A01 T02130120  RH  055%=      5-min Rain = 0
KMC4 092250Z 13005KT 21/12 A3014 RMK A01 T02130121  RH  055%=      5-min Rain = 0
KMC4 092251Z 13005KT 21/12 A3014 RMK A01 T02130120  RH  055%=      5-min Rain = 0
KMC4 092252Z 13003KT 21/12 A3014 RMK A01 T02130119  RH  055%=      5-min Rain = 0
KMC4 092253Z 14003KT 21/12 A3014 RMK A01 T02130123  RH  056%=      5-min Rain = 0
KMC4 092254Z 14004KT 21/12 A3014 RMK A01 T02130120  RH  055%=      5-min Rain = 0
KMC4 092255Z 13003KT 21/12 A3014 RMK A01 T02120120  RH  056%=      5-min Rain = 0
KMC4 092256Z 11003KT 21/12 A3014 RMK A01 T02120123  RH  057%=      5-min Rain = 0
KMC4 092257Z 11003KT 21/12 A3014 RMK A01 T02110121  RH  056%=      5-min Rain = 0
KMC4 092258Z 08003KT 21/12 A3014 RMK A01 T02110121  RH  056%=      5-min Rain = 0
KMC4 092259Z 13003KT 21/12 A3014 RMK A01 T02100123  RH  057%=      5-min Rain = 0
KMC4 092300Z 15004KT 21/12 A3014 RMK A01 T02100123  RH  057%=      5-min Rain = 0
KMC4 092301Z 14003KT 21/12 A3014 RMK A01 T02100119  RH  056%=      5-min Rain = 0
KMC4 092302Z 12004KT 21/12 A3014 RMK A01 T02110120  RH  056%=      5-min Rain = 0
KMC4 092303Z 11006KT 21/12 A3014 RMK A01 T02110122  RH  057%=      5-min Rain = 0
KMC4 092304Z 13005KT 21/12 A3014 RMK A01 T02110120  RH  056%=      5-min Rain = 0
KMC4 092305Z 13006KT 21/12 A3014 RMK A01 T02110123  RH  057%=      5-min Rain = 0
KMC4 092306Z 13006KT 21/12 A3014 RMK A01 T02110123  RH  057%=      5-min Rain = 0
KMC4 092307Z 13007KT 21/12 A3014 RMK A01 T02110121  RH  057%=      5-min Rain = 0
KMC4 092308Z 12007KT 21/12 A3014 RMK A01 T02100121  RH  057%=      5-min Rain = 0
KMC4 092309Z 12006KT 21/12 A3014 RMK A01 T02100121  RH  057%=      5-min Rain = 0
KMC4 092310Z 11006KT 21/12 A3014 RMK A01 T02090120  RH  057%=      5-min Rain = 0
KMC4 092311Z 13005KT 21/12 A3014 RMK A01 T02090120  RH  057%=      5-min Rain = 0
KMC4 092312Z 13006KT 21/13 A3014 RMK A01 T02080127  RH  059%=      5-min Rain = 0
KMC4 092313Z 14007KT 21/12 A3014 RMK A01 T02080124  RH  059%=      5-min Rain = 0
KMC4 092314Z 12005KT 21/12 A3014 RMK A01 T02080123  RH  058%=      5-min Rain = 0
KMC4 092315Z 13005KT 21/12 A3014 RMK A01 T02070124  RH  059%=      5-min Rain = 0
KMC4 092316Z 11005KT 21/12 A3014 RMK A01 T02070124  RH  059%=      5-min Rain = 0
KMC4 092317Z 11006KT 21/12 A3014 RMK A01 T02070123  RH  059%=      5-min Rain = 0
KMC4 092318Z 11005KT 21/12 A3014 RMK A01 T02060122  RH  059%=      5-min Rain = 0
KMC4 092319Z 11005KT 21/12 A3014 RMK A01 T02050121  RH  058%=      5-min Rain = 0
KMC4 092320Z 12004KT 21/13 A3014 RMK A01 T02050125  RH  060%=      5-min Rain = 0
KMC4 092321Z 11005KT 21/13 A3014 RMK A01 T02050127  RH  061%=      5-min Rain = 0
KMC4 092322Z 12006KT 20/12 A3014 RMK A01 T02040123  RH  059%=      5-min Rain = 0
KMC4 092323Z 11006KT 20/12 A3014 RMK A01 T02040123  RH  060%=      5-min Rain = 0
KMC4 092324Z 11006KT 20/12 A3014 RMK A01 T02040122  RH  059%=      5-min Rain = 0
KMC4 092325Z 11006KT 20/12 A3014 RMK A01 T02040123  RH  059%=      5-min Rain = 0
KMC4 092326Z 11005KT 20/12 A3014 RMK A01 T02040123  RH  060%=      5-min Rain = 0
KMC4 092327Z 11005KT 20/12 A3014 RMK A01 T02040123  RH  060%=      5-min Rain = 0
KMC4 092328Z 11006KT 20/12 A3014 RMK A01 T02040124  RH  060%=      5-min Rain = 0
KMC4 092329Z 11005KT 20/12 A3014 RMK A01 T02030122  RH  060%=      5-min Rain = 0
KMC4 092330Z 11004KT 20/12 A3014 RMK A01 T02030123  RH  060%=      5-min Rain = 0
KMC4 092331Z 11004KT 20/13 A3014 RMK A01 T02030126  RH  061%=      5-min Rain = 0
KMC4 092332Z 11004KT 20/12 A3014 RMK A01 T02020122  RH  060%=      5-min Rain = 0
KMC4 092333Z 11004KT 20/12 A3014 RMK A01 T02020123  RH  060%=      5-min Rain = 0
KMC4 092334Z 11004KT 20/12 A3014 RMK A01 T02020124  RH  061%=      5-min Rain = 0
KMC4 092335Z 11004KT 20/12 A3014 RMK A01 T02020123  RH  060%=      5-min Rain = 0
KMC4 092336Z 12004KT 20/12 A3014 RMK A01 T02020123  RH  061%=      5-min Rain = 0
KMC4 092337Z 12005KT 20/13 A3014 RMK A01 T02010126  RH  062%=      5-min Rain = 0
KMC4 092338Z 12005KT 20/12 A3014 RMK A01 T02000123  RH  061%=      5-min Rain = 0
KMC4 092339Z 11005KT 20/13 A3014 RMK A01 T02000125  RH  062%=      5-min Rain = 0
KMC4 092340Z 11006KT 20/12 A3014 RMK A01 T02000123  RH  061%=      5-min Rain = 0
KMC4 092341Z 11005KT 20/13 A3014 RMK A01 T02000125  RH  062%=      5-min Rain = 0
KMC4 092342Z 11007KT 20/12 A3014 RMK A01 T01990123  RH  062%=      5-min Rain = 0
KMC4 092343Z 12006KT 20/12 A3014 RMK A01 T01990122  RH  061%=      5-min Rain = 0
KMC4 092344Z 12006KT 20/12 A3014 RMK A01 T01990124  RH  062%=      5-min Rain = 0
KMC4 092345Z 12006KT 20/12 A3014 RMK A01 T01980123  RH  062%=      5-min Rain = 0
KMC4 092346Z 12005KT 20/12 A3014 RMK A01 T01980123  RH  062%=      5-min Rain = 0
KMC4 092347Z 12005KT 20/13 A3014 RMK A01 T01980125  RH  063%=      5-min Rain = 0
KMC4 092348Z 12005KT 20/13 A3014 RMK A01 T01970125  RH  063%=      5-min Rain = 0
KMC4 092349Z 13005KT 20/12 A3014 RMK A01 T01960124  RH  063%=      5-min Rain = 0
KMC4 092350Z 13005KT 20/12 A3014 RMK A01 T01960123  RH  063%=      5-min Rain = 0
KMC4 092351Z 12005KT 20/12 A3014 RMK A01 T01960124  RH  063%=      5-min Rain = 0
KMC4 092352Z 13005KT 20/13 A3014 RMK A01 T01950125  RH  064%=      5-min Rain = 0
KMC4 092353Z 12006KT 19/13 A3014 RMK A01 T01940126  RH  065%=      5-min Rain = 0
KMC4 092354Z 13007KT 19/12 A3014 RMK A01 T01940124  RH  064%=      5-min Rain = 0
KMC4 092355Z 12006KT 19/13 A3014 RMK A01 T01940125  RH  065%=      5-min Rain = 0
KMC4 092356Z 12006KT 19/13 A3014 RMK A01 T01930125  RH  065%=      5-min Rain = 0
KMC4 092357Z 12006KT 19/13 A3014 RMK A01 T01930125  RH  065%=      5-min Rain = 0
KMC4 092358Z 12006KT 19/13 A3014 RMK A01 T01930125  RH  065%=      5-min Rain = 0
KMC4 092359Z 12006KT 19/13 A3014 RMK A01 T01920125  RH  065%=      5-min Rain = 0
KMC4 100000Z 12006KT 19/12 A3014 RMK A01 T01920124  RH  065%=      5-min Rain = 0
KMC4 100001Z 12006KT 19/12 A3014 RMK A01 T01920124  RH  065%=      5-min Rain = 0
KMC4 100002Z 12006KT 19/13 A3014 RMK A01 T01920125  RH  065%=      5-min Rain = 0
KMC4 100003Z 12006KT 19/12 A3014 RMK A01 T01910124  RH  065%=      5-min Rain = 0
KMC4 100004Z 12006KT 19/12 A3014 RMK A01 T01910124  RH  065%=      5-min Rain = 0
KMC4 100005Z 11006KT 19/12 A3014 RMK A01 T01910123  RH  064%=      5-min Rain = 0
KMC4 100006Z 12006KT 19/12 A3014 RMK A01 T01910123  RH  064%=      5-min Rain = 0
KMC4 100007Z 11005KT 19/12 A3014 RMK A01 T01910124  RH  065%=      5-min Rain = 0
KMC4 100008Z 11006KT 19/12 A3014 RMK A01 T01910124  RH  065%=      5-min Rain = 0
KMC4 100009Z 11005KT 19/12 A3014 RMK A01 T01900124  RH  065%=      5-min Rain = 0
KMC4 100010Z 11006KT 19/12 A3014 RMK A01 T01900123  RH  065%=      5-min Rain = 0
KMC4 100011Z 11006KT 19/12 A3014 RMK A01 T01900124  RH  065%=      5-min Rain = 0
KMC4 100012Z 12006KT 19/12 A3014 RMK A01 T01890124  RH  066%=      5-min Rain = 0
KMC4 100013Z 12006KT 19/12 A3014 RMK A01 T01890123  RH  066%=      5-min Rain = 0
KMC4 100014Z 12005KT 19/12 A3014 RMK A01 T01880123  RH  066%=      5-min Rain = 0
KMC4 100015Z 12006KT 19/12 A3014 RMK A01 T01880124  RH  066%=      5-min Rain = 0
KMC4 100016Z 11006KT 19/12 A3014 RMK A01 T01880123  RH  066%=      5-min Rain = 0
KMC4 100017Z 12006KT 19/12 A3014 RMK A01 T01870123  RH  066%=      5-min Rain = 0
KMC4 100018Z 12006KT 19/12 A3014 RMK A01 T01870124  RH  067%=      5-min Rain = 0
KMC4 100019Z 12005KT 19/12 A3014 RMK A01 T01860123  RH  066%=      5-min Rain = 0
KMC4 100020Z 12006KT 19/12 A3014 RMK A01 T01860123  RH  067%=      5-min Rain = 0
KMC4 100021Z 12005KT 19/12 A3014 RMK A01 T01860123  RH  067%=      5-min Rain = 0
KMC4 100022Z 12005KT 19/12 A3014 RMK A01 T01850124  RH  067%=      5-min Rain = 0
KMC4 100023Z 12005KT 19/12 A3014 RMK A01 T01850124  RH  068%=      5-min Rain = 0
KMC4 100024Z 12005KT 18/12 A3014 RMK A01 T01840123  RH  068%=      5-min Rain = 0
KMC4 100025Z 12006KT 18/12 A3014 RMK A01 T01840122  RH  067%=      5-min Rain = 0
KMC4 100026Z 12006KT 18/12 A3014 RMK A01 T01840122  RH  067%=      5-min Rain = 0
KMC4 100027Z 12006KT 18/12 A3014 RMK A01 T01840123  RH  067%=      5-min Rain = 0
KMC4 100028Z 12006KT 18/12 A3014 RMK A01 T01840122  RH  067%=      5-min Rain = 0
KMC4 100029Z 12005KT 18/12 A3014 RMK A01 T01840122  RH  067%=      5-min Rain = 0
KMC4 100030Z 12006KT 18/12 A3014 RMK A01 T01830123  RH  068%=      5-min Rain = 0
KMC4 100031Z 12005KT 18/12 A3014 RMK A01 T01830122  RH  068%=      5-min Rain = 0
KMC4 100032Z 12005KT 18/12 A3014 RMK A01 T01820123  RH  068%=      5-min Rain = 0
KMC4 100033Z 12005KT 18/12 A3014 RMK A01 T01820123  RH  069%=      5-min Rain = 0
KMC4 100034Z 12005KT 18/12 A3014 RMK A01 T01810123  RH  069%=      5-min Rain = 0
KMC4 100035Z 12004KT 18/12 A3014 RMK A01 T01810122  RH  068%=      5-min Rain = 0
KMC4 100036Z 12005KT 18/12 A3014 RMK A01 T01810124  RH  069%=      5-min Rain = 0
KMC4 100037Z 12005KT 18/12 A3014 RMK A01 T01800122  RH  069%=      5-min Rain = 0
KMC4 100038Z 12005KT 18/12 A3014 RMK A01 T01800123  RH  069%=      5-min Rain = 0
KMC4 100039Z 12005KT 18/12 A3014 RMK A01 T01800122  RH  069%=      5-min Rain = 0
KMC4 100040Z 12005KT 18/12 A3014 RMK A01 T01800123  RH  069%=      5-min Rain = 0
KMC4 100041Z 12005KT 18/12 A3014 RMK A01 T01800123  RH  069%=      5-min Rain = 0
KMC4 100042Z 12005KT 18/12 A3014 RMK A01 T01790122  RH  069%=      5-min Rain = 0
KMC4 100043Z 13005KT 18/12 A3014 RMK A01 T01790122  RH  069%=      5-min Rain = 0
KMC4 100044Z 12005KT 18/12 A3014 RMK A01 T01790122  RH  069%=      5-min Rain = 0
KMC4 100045Z 12005KT 18/12 A3014 RMK A01 T01790122  RH  069%=      5-min Rain = 0
KMC4 100046Z 12006KT 18/12 A3014 RMK A01 T01790122  RH  069%=      5-min Rain = 0
KMC4 100047Z 12005KT 18/12 A3014 RMK A01 T01790122  RH  069%=      5-min Rain = 0
KMC4 100048Z 12005KT 18/12 A3014 RMK A01 T01780122  RH  070%=      5-min Rain = 0
KMC4 100049Z 11005KT 18/12 A3014 RMK A01 T01780122  RH  070%=      5-min Rain = 0
KMC4 100050Z 10004KT 18/12 A3014 RMK A01 T01770122  RH  070%=      5-min Rain = 0
KMC4 100051Z 10004KT 18/12 A3014 RMK A01 T01770122  RH  070%=      5-min Rain = 0
KMC4 100052Z 10004KT 18/12 A3014 RMK A01 T01760122  RH  070%=      5-min Rain = 0
KMC4 100053Z 11004KT 18/12 A3014 RMK A01 T01750122  RH  071%=      5-min Rain = 0
KMC4 100054Z 11004KT 17/12 A3014 RMK A01 T01740121  RH  071%=      5-min Rain = 0
KMC4 100055Z 11003KT 17/12 A3014 RMK A01 T01740121  RH  071%=      5-min Rain = 0
KMC4 100056Z 11003KT 17/12 A3014 RMK A01 T01730122  RH  072%=      5-min Rain = 0
KMC4 100057Z 11003KT 17/12 A3014 RMK A01 T01730122  RH  072%=      5-min Rain = 0
KMC4 100058Z 10003KT 17/12 A3014 RMK A01 T01720122  RH  072%=      5-min Rain = 0
KMC4 100059Z 10003KT 17/12 A3014 RMK A01 T01710121  RH  072%=      5-min Rain = 0
KMC4 100100Z 10004KT 17/12 A3015 RMK A01 T01720122  RH  072%=      5-min Rain = 0
KMC4 100101Z 10004KT 17/12 A3015 RMK A01 T01710122  RH  073%=      5-min Rain = 0
KMC4 100102Z 10005KT 17/12 A3015 RMK A01 T01710121  RH  073%=      5-min Rain = 0
KMC4 100103Z 09005KT 17/12 A3015 RMK A01 T01710121  RH  073%=      5-min Rain = 0
KMC4 100104Z 10004KT 17/12 A3015 RMK A01 T01700121  RH  073%=      5-min Rain = 0
KMC4 100105Z 10005KT 17/12 A3014 RMK A01 T01710121  RH  073%=      5-min Rain = 0
KMC4 100106Z 10005KT 17/12 A3014 RMK A01 T01700121  RH  073%=      5-min Rain = 0
KMC4 100107Z 10005KT 17/12 A3014 RMK A01 T01700121  RH  073%=      5-min Rain = 0
KMC4 100108Z 10005KT 17/12 A3014 RMK A01 T01700122  RH  073%=      5-min Rain = 0
KMC4 100109Z 10005KT 17/12 A3014 RMK A01 T01700122  RH  073%=      5-min Rain = 0
KMC4 100110Z 11005KT 17/12 A3014 RMK A01 T01690122  RH  074%=      5-min Rain = 0
KMC4 100111Z 11005KT 17/12 A3014 RMK A01 T01690122  RH  074%=      5-min Rain = 0
KMC4 100112Z 11005KT 17/12 A3014 RMK A01 T01690121  RH  074%=      5-min Rain = 0
KMC4 100113Z 11005KT 17/12 A3014 RMK A01 T01690121  RH  073%=      5-min Rain = 0
KMC4 100114Z 11005KT 17/12 A3014 RMK A01 T01690120  RH  073%=      5-min Rain = 0
KMC4 100115Z 11005KT 17/12 A3014 RMK A01 T01690121  RH  073%=      5-min Rain = 0
KMC4 100116Z 11005KT 17/12 A3014 RMK A01 T01690121  RH  073%=      5-min Rain = 0
KMC4 100117Z 11005KT 17/12 A3014 RMK A01 T01690121  RH  073%=      5-min Rain = 0
KMC4 100118Z 11004KT 17/12 A3014 RMK A01 T01690120  RH  073%=      5-min Rain = 0
KMC4 100119Z 11005KT 17/12 A3015 RMK A01 T01680120  RH  073%=      5-min Rain = 0
KMC4 100120Z 10004KT 17/12 A3015 RMK A01 T01680120  RH  073%=      5-min Rain = 0
KMC4 100121Z 11004KT 17/12 A3015 RMK A01 T01680121  RH  074%=      5-min Rain = 0
KMC4 100122Z 11004KT 17/12 A3015 RMK A01 T01670121  RH  074%=      5-min Rain = 0
KMC4 100123Z 11004KT 17/12 A3015 RMK A01 T01670121  RH  074%=      5-min Rain = 0
KMC4 100124Z 10005KT 17/12 A3015 RMK A01 T01660120  RH  074%=      5-min Rain = 0
KMC4 100125Z 10005KT 17/12 A3015 RMK A01 T01660119  RH  074%=      5-min Rain = 0
KMC4 100126Z 11005KT 17/12 A3015 RMK A01 T01660119  RH  074%=      5-min Rain = 0
KMC4 100127Z 11005KT 17/12 A3015 RMK A01 T01660120  RH  074%=      5-min Rain = 0
KMC4 100128Z 11005KT 17/12 A3015 RMK A01 T01660120  RH  074%=      5-min Rain = 0
KMC4 100129Z 11005KT 17/12 A3015 RMK A01 T01660120  RH  074%=      5-min Rain = 0
KMC4 100130Z 10005KT 17/12 A3015 RMK A01 T01660120  RH  074%=      5-min Rain = 0
KMC4 100131Z 11005KT 17/12 A3015 RMK A01 T01650120  RH  075%=      5-min Rain = 0
KMC4 100132Z 11005KT 17/12 A3015 RMK A01 T01660121  RH  075%=      5-min Rain = 0
KMC4 100133Z 11005KT 17/12 A3015 RMK A01 T01650120  RH  075%=      5-min Rain = 0
KMC4 100134Z 11005KT 17/12 A3015 RMK A01 T01650120  RH  074%=      5-min Rain = 0
KMC4 100135Z 10005KT 17/12 A3015 RMK A01 T01650119  RH  074%=      5-min Rain = 0
KMC4 100136Z 11006KT 17/12 A3015 RMK A01 T01660120  RH  074%=      5-min Rain = 0
KMC4 100137Z 11005KT 17/12 A3015 RMK A01 T01660119  RH  074%=      5-min Rain = 0
KMC4 100138Z 11006KT 17/12 A3015 RMK A01 T01660119  RH  074%=      5-min Rain = 0
KMC4 100139Z 11005KT 17/12 A3015 RMK A01 T01660119  RH  074%=      5-min Rain = 0
KMC4 100140Z 10005KT 17/12 A3015 RMK A01 T01660120  RH  074%=      5-min Rain = 0
KMC4 100141Z 11005KT 17/12 A3015 RMK A01 T01650120  RH  074%=      5-min Rain = 0
KMC4 100142Z 10005KT 17/12 A3015 RMK A01 T01650120  RH  074%=      5-min Rain = 0
KMC4 100143Z 10004KT 17/12 A3015 RMK A01 T01650119  RH  074%=      5-min Rain = 0
KMC4 100144Z 11004KT 17/12 A3015 RMK A01 T01650119  RH  074%=      5-min Rain = 0
KMC4 100145Z 11005KT 17/12 A3015 RMK A01 T01650119  RH  074%=      5-min Rain = 0
KMC4 100146Z 11005KT 17/12 A3015 RMK A01 T01650119  RH  075%=      5-min Rain = 0
KMC4 100147Z 11004KT 16/12 A3015 RMK A01 T01640120  RH  075%=      5-min Rain = 0
KMC4 100148Z 11004KT 16/12 A3015 RMK A01 T01640120  RH  075%=      5-min Rain = 0
KMC4 100149Z 11005KT 16/12 A3015 RMK A01 T01630120  RH  075%=      5-min Rain = 0
KMC4 100150Z 11004KT 16/12 A3015 RMK A01 T01630120  RH  075%=      5-min Rain = 0
KMC4 100151Z 12004KT 16/12 A3015 RMK A01 T01630119  RH  075%=      5-min Rain = 0
KMC4 100152Z 12005KT 16/12 A3015 RMK A01 T01630119  RH  075%=      5-min Rain = 0
KMC4 100153Z 11004KT 16/12 A3015 RMK A01 T01630120  RH  075%=      5-min Rain = 0
KMC4 100154Z 12004KT 16/12 A3015 RMK A01 T01620120  RH  076%=      5-min Rain = 0
KMC4 100155Z 12004KT 16/12 A3015 RMK A01 T01620120  RH  076%=      5-min Rain = 0
KMC4 100156Z 12004KT 16/12 A3015 RMK A01 T01610120  RH  077%=      5-min Rain = 0
KMC4 100157Z 12004KT 16/12 A3015 RMK A01 T01600120  RH  077%=      5-min Rain = 0
KMC4 100158Z 12005KT 16/12 A3015 RMK A01 T01600121  RH  077%=      5-min Rain = 0
KMC4 100159Z 12005KT 16/12 A3015 RMK A01 T01600121  RH  078%=      5-min Rain = 0
KMC4 100200Z 12004KT 16/12 A3015 RMK A01 T01600121  RH  078%=      5-min Rain = 0
KMC4 100201Z 12004KT 16/12 A3015 RMK A01 T01590120  RH  078%=      5-min Rain = 0
KMC4 100202Z 12004KT 16/12 A3015 RMK A01 T01590120  RH  078%=      5-min Rain = 0
KMC4 100203Z 12004KT 16/12 A3015 RMK A01 T01590120  RH  078%=      5-min Rain = 0
KMC4 100204Z 11004KT 16/12 A3015 RMK A01 T01590121  RH  078%=      5-min Rain = 0
KMC4 100205Z 11004KT 16/12 A3015 RMK A01 T01590120  RH  078%=      5-min Rain = 0
KMC4 100206Z 11004KT 16/12 A3015 RMK A01 T01580120  RH  078%=      5-min Rain = 0
KMC4 100207Z 11005KT 16/12 A3015 RMK A01 T01580119  RH  077%=      5-min Rain = 0
KMC4 100208Z 11005KT 16/12 A3015 RMK A01 T01590119  RH  077%=      5-min Rain = 0
KMC4 100209Z 11004KT 16/12 A3015 RMK A01 T01590119  RH  077%=      5-min Rain = 0
KMC4 100210Z 11004KT 16/12 A3015 RMK A01 T01590119  RH  077%=      5-min Rain = 0
KMC4 100211Z 11005KT 16/12 A3015 RMK A01 T01590119  RH  077%=      5-min Rain = 0
KMC4 100212Z 11005KT 16/12 A3015 RMK A01 T01590119  RH  077%=      5-min Rain = 0
KMC4 100213Z 12004KT 16/12 A3015 RMK A01 T01590120  RH  077%=      5-min Rain = 0
KMC4 100214Z 12004KT 16/12 A3015 RMK A01 T01590120  RH  077%=      5-min Rain = 0
KMC4 100215Z 12004KT 16/12 A3015 RMK A01 T01590119  RH  077%=      5-min Rain = 0
KMC4 100216Z 11005KT 16/12 A3015 RMK A01 T01590119  RH  078%=      5-min Rain = 0
KMC4 100217Z 11005KT 16/12 A3015 RMK A01 T01590120  RH  078%=      5-min Rain = 0
KMC4 100218Z 11005KT 16/12 A3015 RMK A01 T01580119  RH  078%=      5-min Rain = 0
KMC4 100219Z 11005KT 16/12 A3015 RMK A01 T01590119  RH  077%=      5-min Rain = 0
KMC4 100220Z 11004KT 16/12 A3015 RMK A01 T01590119  RH  077%=      5-min Rain = 0
KMC4 100221Z 11004KT 16/12 A3015 RMK A01 T01580119  RH  078%=      5-min Rain = 0
KMC4 100222Z 11004KT 16/12 A3015 RMK A01 T01580119  RH  078%=      5-min Rain = 0
KMC4 100223Z 12005KT 16/12 A3015 RMK A01 T01580119  RH  078%=      5-min Rain = 0
KMC4 100224Z 12004KT 16/12 A3015 RMK A01 T01580119  RH  077%=      5-min Rain = 0
KMC4 100225Z 12005KT 16/12 A3015 RMK A01 T01580119  RH  077%=      5-min Rain = 0
KMC4 100226Z 12006KT 16/12 A3015 RMK A01 T01580119  RH  077%=      5-min Rain = 0
KMC4 100227Z 12005KT 16/12 A3015 RMK A01 T01580119  RH  077%=      5-min Rain = 0
KMC4 100228Z 12005KT 16/12 A3015 RMK A01 T01580118  RH  077%=      5-min Rain = 0
KMC4 100229Z 12005KT 16/12 A3015 RMK A01 T01580119  RH  077%=      5-min Rain = 0
KMC4 100230Z 12005KT 16/12 A3015 RMK A01 T01580119  RH  077%=      5-min Rain = 0
KMC4 100231Z 12005KT 16/12 A3015 RMK A01 T01580118  RH  077%=      5-min Rain = 0
KMC4 100232Z 12005KT 16/12 A3015 RMK A01 T01580119  RH  077%=      5-min Rain = 0
KMC4 100233Z 12005KT 16/12 A3015 RMK A01 T01580118  RH  077%=      5-min Rain = 0
KMC4 100234Z 12005KT 16/12 A3015 RMK A01 T01580118  RH  077%=      5-min Rain = 0
KMC4 100235Z 12004KT 16/12 A3015 RMK A01 T01580118  RH  077%=      5-min Rain = 0
KMC4 100236Z 12004KT 16/12 A3015 RMK A01 T01570119  RH  078%=      5-min Rain = 0
KMC4 100237Z 12004KT 16/12 A3015 RMK A01 T01570118  RH  078%=      5-min Rain = 0
KMC4 100238Z 12004KT 16/12 A3015 RMK A01 T01570118  RH  078%=      5-min Rain = 0
KMC4 100239Z 11004KT 16/12 A3015 RMK A01 T01560118  RH  078%=      5-min Rain = 0
KMC4 100240Z 12004KT 16/12 A3015 RMK A01 T01560118  RH  078%=      5-min Rain = 0
KMC4 100241Z 12003KT 16/12 A3015 RMK A01 T01560118  RH  078%=      5-min Rain = 0
KMC4 100242Z 12004KT 16/12 A3015 RMK A01 T01550118  RH  078%=      5-min Rain = 0
KMC4 100243Z 12004KT 16/12 A3015 RMK A01 T01550117  RH  078%=      5-min Rain = 0
KMC4 100244Z 12003KT 16/12 A3015 RMK A01 T01560118  RH  078%=      5-min Rain = 0
KMC4 100245Z 12004KT 16/12 A3015 RMK A01 T01550118  RH  078%=      5-min Rain = 0
KMC4 100246Z 12004KT 16/12 A3015 RMK A01 T01560117  RH  078%=      5-min Rain = 0
KMC4 100247Z 12004KT 16/12 A3015 RMK A01 T01550117  RH  078%=      5-min Rain = 0
KMC4 100248Z 12004KT 16/12 A3015 RMK A01 T01550117  RH  078%=      5-min Rain = 0
KMC4 100249Z 13003KT 16/12 A3015 RMK A01 T01560116  RH  078%=      5-min Rain = 0
KMC4 100250Z 13004KT 16/12 A3015 RMK A01 T01550117  RH  078%=      5-min Rain = 0
KMC4 100251Z 12004KT 16/12 A3015 RMK A01 T01550117  RH  078%=      5-min Rain = 0
KMC4 100252Z 13005KT 16/12 A3015 RMK A01 T01550118  RH  078%=      5-min Rain = 0
KMC4 100253Z 12004KT 16/12 A3015 RMK A01 T01550117  RH  078%=      5-min Rain = 0
KMC4 100254Z 12003KT 16/12 A3015 RMK A01 T01550117  RH  078%=      5-min Rain = 0
KMC4 100255Z 13004KT 15/12 A3015 RMK A01 T01540117  RH  079%=      5-min Rain = 0
KMC4 100256Z 13004KT 15/12 A3015 RMK A01 T01540117  RH  079%=      5-min Rain = 0
KMC4 100257Z 13004KT 15/12 A3015 RMK A01 T01540117  RH  079%=      5-min Rain = 0
KMC4 100258Z 13004KT 15/12 A3015 RMK A01 T01530117  RH  079%=      5-min Rain = 0
KMC4 100259Z 12004KT 15/12 A3015 RMK A01 T01530117  RH  079%=      5-min Rain = 0
KMC4 100300Z 12005KT 15/12 A3015 RMK A01 T01530117  RH  079%=      5-min Rain = 0
KMC4 100301Z 12005KT 15/12 A3015 RMK A01 T01530117  RH  079%=      5-min Rain = 0
KMC4 100302Z 12005KT 15/12 A3015 RMK A01 T01530117  RH  079%=      5-min Rain = 0
KMC4 100303Z 13005KT 15/12 A3015 RMK A01 T01530116  RH  078%=      5-min Rain = 0
KMC4 100304Z 13005KT 15/12 A3015 RMK A01 T01540116  RH  078%=      5-min Rain = 0
KMC4 100305Z 13006KT 15/12 A3015 RMK A01 T01530116  RH  078%=      5-min Rain = 0
KMC4 100306Z 13006KT 15/12 A3015 RMK A01 T01540116  RH  078%=      5-min Rain = 0
KMC4 100307Z 13005KT 15/12 A3015 RMK A01 T01540117  RH  078%=      5-min Rain = 0
KMC4 100308Z 14006KT 15/12 A3015 RMK A01 T01530116  RH  079%=      5-min Rain = 0
KMC4 100309Z 14006KT 15/12 A3015 RMK A01 T01530116  RH  079%=      5-min Rain = 0
KMC4 100310Z 14007KT 15/12 A3015 RMK A01 T01530116  RH  079%=      5-min Rain = 0
KMC4 100311Z 14006KT 15/12 A3015 RMK A01 T01530116  RH  079%=      5-min Rain = 0
KMC4 100312Z 14007KT 15/12 A3015 RMK A01 T01530116  RH  079%=      5-min Rain = 0
KMC4 100313Z 14007KT 15/12 A3015 RMK A01 T01530116  RH  079%=      5-min Rain = 0
KMC4 100314Z 14007KT 15/12 A3015 RMK A01 T01530115  RH  078%=      5-min Rain = 0
KMC4 100315Z 14007KT 15/12 A3015 RMK A01 T01530115  RH  078%=      5-min Rain = 0
KMC4 100316Z 14006KT 15/12 A3015 RMK A01 T01540115  RH  078%=      5-min Rain = 0
KMC4 100317Z 14007KT 15/12 A3015 RMK A01 T01540116  RH  078%=      5-min Rain = 0
KMC4 100318Z 14006KT 15/12 A3015 RMK A01 T01540116  RH  078%=      5-min Rain = 0
KMC4 100319Z 14006KT 15/12 A3015 RMK A01 T01530115  RH  078%=      5-min Rain = 0
KMC4 100320Z 14007KT 15/12 A3015 RMK A01 T01530115  RH  078%=      5-min Rain = 0
KMC4 100321Z 14006KT 15/12 A3015 RMK A01 T01530115  RH  078%=      5-min Rain = 0
KMC4 100322Z 14007KT 15/12 A3015 RMK A01 T01530115  RH  078%=      5-min Rain = 0
KMC4 100323Z 14006KT 15/12 A3015 RMK A01 T01530116  RH  078%=      5-min Rain = 0
KMC4 100324Z 15005KT 15/12 A3015 RMK A01 T01520115  RH  078%=      5-min Rain = 0
KMC4 100325Z 14005KT 15/12 A3015 RMK A01 T01520115  RH  079%=      5-min Rain = 0
KMC4 100326Z 15005KT 15/12 A3015 RMK A01 T01520116  RH  079%=      5-min Rain = 0
KMC4 100327Z 14005KT 15/12 A3015 RMK A01 T01510115  RH  079%=      5-min Rain = 0
KMC4 100328Z 14005KT 15/12 A3015 RMK A01 T01510116  RH  080%=      5-min Rain = 0
KMC4 100329Z 14005KT 15/12 A3015 RMK A01 T01500115  RH  080%=      5-min Rain = 0
KMC4 100330Z 14005KT 15/12 A3015 RMK A01 T01490116  RH  080%=      5-min Rain = 0
KMC4 100331Z 15005KT 15/12 A3015 RMK A01 T01490115  RH  080%=      5-min Rain = 0
KMC4 100332Z 15005KT 15/12 A3015 RMK A01 T01490115  RH  080%=      5-min Rain = 0
KMC4 100333Z 15005KT 15/12 A3015 RMK A01 T01490115  RH  080%=      5-min Rain = 0
KMC4 100334Z 16004KT 15/12 A3015 RMK A01 T01490115  RH  080%=      5-min Rain = 0
KMC4 100335Z 15004KT 15/12 A3015 RMK A01 T01490115  RH  080%=      5-min Rain = 0
KMC4 100336Z 15004KT 15/12 A3015 RMK A01 T01490115  RH  080%=      5-min Rain = 0
KMC4 100337Z 14004KT 15/12 A3015 RMK A01 T01480115  RH  080%=      5-min Rain = 0
KMC4 100338Z 14004KT 15/12 A3015 RMK A01 T01480115  RH  081%=      5-min Rain = 0
KMC4 100339Z 15004KT 15/12 A3015 RMK A01 T01480115  RH  081%=      5-min Rain = 0
KMC4 100340Z 15005KT 15/12 A3015 RMK A01 T01470115  RH  081%=      5-min Rain = 0
KMC4 100341Z 15005KT 15/12 A3015 RMK A01 T01470115  RH  081%=      5-min Rain = 0
KMC4 100342Z 14006KT 15/12 A3015 RMK A01 T01470115  RH  081%=      5-min Rain = 0
KMC4 100343Z 14005KT 15/12 A3015 RMK A01 T01470115  RH  081%=      5-min Rain = 0
KMC4 100344Z 14004KT 15/12 A3015 RMK A01 T01470115  RH  081%=      5-min Rain = 0
KMC4 100345Z 14004KT 15/12 A3015 RMK A01 T01460115  RH  082%=      5-min Rain = 0
KMC4 100346Z 14004KT 15/12 A3015 RMK A01 T01450115  RH  082%=      5-min Rain = 0
KMC4 100347Z 14004KT 15/12 A3015 RMK A01 T01450115  RH  082%=      5-min Rain = 0
KMC4 100348Z 13004KT 14/12 A3015 RMK A01 T01440115  RH  082%=      5-min Rain = 0
KMC4 100349Z 13003KT 14/12 A3015 RMK A01 T01440115  RH  082%=      5-min Rain = 0
KMC4 100350Z 13003KT 14/12 A3015 RMK A01 T01440115  RH  082%=      5-min Rain = 0
KMC4 100351Z 13003KT 14/12 A3015 RMK A01 T01440115  RH  082%=      5-min Rain = 0
KMC4 100352Z 13003KT 14/12 A3015 RMK A01 T01440115  RH  082%=      5-min Rain = 0
KMC4 100353Z 14003KT 14/12 A3015 RMK A01 T01440115  RH  082%=      5-min Rain = 0
KMC4 100354Z 14003KT 14/11 A3015 RMK A01 T01440114  RH  082%=      5-min Rain = 0
KMC4 100355Z 15003KT 14/11 A3015 RMK A01 T01440114  RH  082%=      5-min Rain = 0
KMC4 100356Z 14003KT 14/11 A3015 RMK A01 T01440114  RH  082%=      5-min Rain = 0
KMC4 100357Z 13003KT 14/11 A3015 RMK A01 T01440114  RH  082%=      5-min Rain = 0
KMC4 100358Z 13003KT 14/11 A3015 RMK A01 T01440114  RH  082%=      5-min Rain = 0
KMC4 100359Z 12003KT 14/11 A3015 RMK A01 T01440114  RH  082%=      5-min Rain = 0
KMC4 100400Z 12004KT 14/11 A3015 RMK A01 T01430114  RH  082%=      5-min Rain = 0
KMC4 100401Z 12004KT 14/11 A3015 RMK A01 T01430114  RH  083%=      5-min Rain = 0
KMC4 100402Z 13004KT 14/11 A3016 RMK A01 T01430114  RH  083%=      5-min Rain = 0
KMC4 100403Z 13004KT 14/11 A3016 RMK A01 T01430114  RH  083%=      5-min Rain = 0
KMC4 100404Z 13004KT 14/11 A3016 RMK A01 T01430114  RH  083%=      5-min Rain = 0
KMC4 100405Z 13004KT 14/11 A3016 RMK A01 T01430113  RH  082%=      5-min Rain = 0
KMC4 100406Z 12003KT 14/11 A3016 RMK A01 T01430113  RH  082%=      5-min Rain = 0
KMC4 100407Z 12004KT 14/11 A3016 RMK A01 T01440114  RH  082%=      5-min Rain = 0
KMC4 100408Z 11004KT 14/11 A3016 RMK A01 T01440113  RH  082%=      5-min Rain = 0
KMC4 100409Z 11004KT 14/11 A3016 RMK A01 T01440113  RH  082%=      5-min Rain = 0
KMC4 100410Z 11004KT 14/11 A3016 RMK A01 T01440113  RH  081%=      5-min Rain = 0
KMC4 100411Z 11004KT 14/11 A3016 RMK A01 T01440113  RH  081%=      5-min Rain = 0
KMC4 100412Z 11004KT 15/11 A3016 RMK A01 T01450113  RH  081%=      5-min Rain = 0
KMC4 100413Z 11004KT 15/11 A3016 RMK A01 T01450113  RH  081%=      5-min Rain = 0
KMC4 100414Z 11004KT 15/11 A3016 RMK A01 T01450112  RH  081%=      5-min Rain = 0
KMC4 100415Z 11004KT 15/11 A3016 RMK A01 T01450112  RH  081%=      5-min Rain = 0
KMC4 100416Z 11004KT 15/11 A3016 RMK A01 T01450112  RH  081%=      5-min Rain = 0
KMC4 100417Z 11004KT 15/11 A3016 RMK A01 T01450112  RH  080%=      5-min Rain = 0
KMC4 100418Z 11003KT 15/11 A3016 RMK A01 T01450112  RH  080%=      5-min Rain = 0
KMC4 100419Z 12004KT 15/11 A3016 RMK A01 T01450112  RH  080%=      5-min Rain = 0
KMC4 100420Z 13003KT 15/11 A3016 RMK A01 T01450112  RH  081%=      5-min Rain = 0
KMC4 100421Z 12004KT 15/11 A3016 RMK A01 T01450113  RH  081%=      5-min Rain = 0
KMC4 100422Z 13004KT 14/11 A3015 RMK A01 T01430112  RH  082%=      5-min Rain = 0
KMC4 100423Z 12005KT 14/11 A3015 RMK A01 T01430112  RH  082%=      5-min Rain = 0
KMC4 100424Z 12005KT 14/11 A3015 RMK A01 T01420112  RH  082%=      5-min Rain = 0
KMC4 100425Z 12005KT 14/11 A3015 RMK A01 T01430112  RH  082%=      5-min Rain = 0
KMC4 100426Z 12005KT 14/11 A3015 RMK A01 T01430112  RH  082%=      5-min Rain = 0
KMC4 100427Z 12005KT 14/11 A3015 RMK A01 T01430112  RH  082%=      5-min Rain = 0
KMC4 100428Z 12005KT 14/11 A3015 RMK A01 T01430112  RH  082%=      5-min Rain = 0
KMC4 100429Z 12005KT 14/11 A3015 RMK A01 T01420112  RH  082%=      5-min Rain = 0
KMC4 100430Z 12005KT 14/11 A3015 RMK A01 T01420112  RH  082%=      5-min Rain = 0
KMC4 100431Z 12005KT 14/11 A3015 RMK A01 T01420112  RH  082%=      5-min Rain = 0
KMC4 100432Z 12005KT 14/11 A3015 RMK A01 T01420111  RH  082%=      5-min Rain = 0
KMC4 100433Z 12005KT 14/11 A3015 RMK A01 T01420112  RH  082%=      5-min Rain = 0
KMC4 100434Z 12005KT 14/11 A3015 RMK A01 T01430112  RH  082%=      5-min Rain = 0
KMC4 100435Z 11005KT 14/11 A3015 RMK A01 T01420112  RH  082%=      5-min Rain = 0
KMC4 100436Z 11004KT 14/11 A3015 RMK A01 T01430112  RH  082%=      5-min Rain = 0
KMC4 100437Z 11004KT 14/11 A3015 RMK A01 T01420111  RH  082%=      5-min Rain = 0
KMC4 100438Z 11004KT 14/11 A3015 RMK A01 T01430112  RH  082%=      5-min Rain = 0
KMC4 100439Z 11003KT 14/11 A3015 RMK A01 T01420111  RH  082%=      5-min Rain = 0
KMC4 100440Z 11003KT 14/11 A3016 RMK A01 T01430112  RH  082%=      5-min Rain = 0
KMC4 100441Z 11003KT 14/11 A3016 RMK A01 T01420111  RH  082%=      5-min Rain = 0
KMC4 100442Z 11003KT 14/11 A3016 RMK A01 T01410112  RH  082%=      5-min Rain = 0
KMC4 100443Z 11003KT 14/11 A3016 RMK A01 T01410111  RH  082%=      5-min Rain = 0
KMC4 100444Z 11004KT 14/11 A3016 RMK A01 T01410111  RH  082%=      5-min Rain = 0
KMC4 100445Z 11004KT 14/11 A3016 RMK A01 T01410111  RH  082%=      5-min Rain = 0
KMC4 100446Z 10004KT 14/11 A3016 RMK A01 T01410111  RH  082%=      5-min Rain = 0
KMC4 100447Z 10004KT 14/11 A3016 RMK A01 T01410111  RH  082%=      5-min Rain = 0
KMC4 100448Z 11004KT 14/11 A3016 RMK A01 T01410111  RH  082%=      5-min Rain = 0
KMC4 100449Z 11004KT 14/11 A3016 RMK A01 T01400111  RH  083%=      5-min Rain = 0
KMC4 100450Z 11004KT 14/11 A3016 RMK A01 T01400111  RH  083%=      5-min Rain = 0
KMC4 100451Z 11004KT 14/11 A3016 RMK A01 T01400111  RH  083%=      5-min Rain = 0
KMC4 100452Z 11004KT 14/11 A3016 RMK A01 T01400111  RH  083%=      5-min Rain = 0
KMC4 100453Z 10003KT 14/11 A3015 RMK A01 T01400111  RH  083%=      5-min Rain = 0
KMC4 100454Z 11004KT 14/11 A3015 RMK A01 T01400111  RH  083%=      5-min Rain = 0
KMC4 100455Z 11004KT 14/11 A3015 RMK A01 T01390111  RH  083%=      5-min Rain = 0
KMC4 100456Z 11003KT 14/11 A3015 RMK A01 T01390111  RH  083%=      5-min Rain = 0
KMC4 100457Z 11003KT 14/11 A3015 RMK A01 T01390111  RH  083%=      5-min Rain = 0
KMC4 100458Z 12003KT 14/11 A3015 RMK A01 T01390111  RH  083%=      5-min Rain = 0
KMC4 100459Z 10003KT 14/11 A3015 RMK A01 T01380111  RH  084%=      5-min Rain = 0
KMC4 100500Z 11004KT 14/11 A3015 RMK A01 T01380111  RH  084%=      5-min Rain = 0
KMC4 100501Z 10003KT 14/11 A3015 RMK A01 T01380111  RH  084%=      5-min Rain = 0
KMC4 100502Z 11003KT 14/11 A3015 RMK A01 T01380111  RH  084%=      5-min Rain = 0
KMC4 100503Z 10003KT 14/11 A3015 RMK A01 T01370110  RH  084%=      5-min Rain = 0
KMC4 100504Z 09004KT 14/11 A3015 RMK A01 T01370110  RH  084%=      5-min Rain = 0
KMC4 100505Z 09004KT 14/11 A3015 RMK A01 T01370111  RH  084%=      5-min Rain = 0
KMC4 100506Z 09004KT 14/11 A3015 RMK A01 T01360110  RH  084%=      5-min Rain = 0
KMC4 100507Z 09004KT 14/11 A3015 RMK A01 T01360110  RH  085%=      5-min Rain = 0
KMC4 100508Z 10005KT 14/11 A3015 RMK A01 T01350110  RH  085%=      5-min Rain = 0
KMC4 100509Z 10005KT 14/11 A3015 RMK A01 T01350111  RH  085%=      5-min Rain = 0
KMC4 100510Z 10005KT 14/11 A3015 RMK A01 T01350110  RH  085%=      5-min Rain = 0
KMC4 100511Z 10004KT 14/11 A3015 RMK A01 T01350110  RH  085%=      5-min Rain = 0
KMC4 100512Z 10004KT 14/11 A3015 RMK A01 T01350110  RH  085%=      5-min Rain = 0
KMC4 100513Z 11004KT 14/11 A3015 RMK A01 T01350110  RH  085%=      5-min Rain = 0
KMC4 100514Z 10004KT 14/11 A3015 RMK A01 T01350110  RH  085%=      5-min Rain = 0
KMC4 100515Z 10004KT 14/11 A3015 RMK A01 T01350110  RH  085%=      5-min Rain = 0
KMC4 100516Z 10005KT 14/11 A3015 RMK A01 T01350110  RH  085%=      5-min Rain = 0
KMC4 100517Z 11004KT 14/11 A3015 RMK A01 T01350110  RH  085%=      5-min Rain = 0
KMC4 100518Z 11006KT 14/11 A3015 RMK A01 T01350110  RH  085%=      5-min Rain = 0
KMC4 100519Z 11005KT 14/11 A3015 RMK A01 T01360110  RH  085%=      5-min Rain = 0
KMC4 100520Z 11005KT 14/11 A3015 RMK A01 T01360110  RH  085%=      5-min Rain = 0
KMC4 100521Z 11005KT 14/11 A3015 RMK A01 T01360110  RH  085%=      5-min Rain = 0
KMC4 100522Z 11005KT 14/11 A3015 RMK A01 T01360110  RH  084%=      5-min Rain = 0
KMC4 100523Z 11006KT 14/11 A3015 RMK A01 T01360110  RH  084%=      5-min Rain = 0
KMC4 100524Z 11005KT 14/11 A3015 RMK A01 T01360110  RH  084%=      5-min Rain = 0
KMC4 100525Z 11005KT 14/11 A3015 RMK A01 T01370110  RH  084%=      5-min Rain = 0
KMC4 100526Z 11005KT 14/11 A3015 RMK A01 T01360110  RH  084%=      5-min Rain = 0
KMC4 100527Z 11005KT 14/11 A3015 RMK A01 T01360110  RH  084%=      5-min Rain = 0
KMC4 100528Z 11006KT 14/11 A3015 RMK A01 T01360110  RH  084%=      5-min Rain = 0
KMC4 100529Z 11005KT 14/11 A3015 RMK A01 T01360110  RH  084%=      5-min Rain = 0
KMC4 100530Z 11005KT 14/11 A3015 RMK A01 T01360110  RH  084%=      5-min Rain = 0
KMC4 100531Z 11005KT 14/11 A3015 RMK A01 T01350110  RH  084%=      5-min Rain = 0
KMC4 100532Z 12005KT 14/11 A3015 RMK A01 T01360110  RH  085%=      5-min Rain = 0
KMC4 100533Z 12005KT 14/11 A3015 RMK A01 T01350110  RH  085%=      5-min Rain = 0
KMC4 100534Z 12006KT 14/11 A3015 RMK A01 T01350110  RH  085%=      5-min Rain = 0
KMC4 100535Z 12006KT 14/11 A3015 RMK A01 T01350111  RH  085%=      5-min Rain = 0
KMC4 100536Z 12006KT 14/11 A3015 RMK A01 T01350110  RH  085%=      5-min Rain = 0
KMC4 100537Z 12006KT 14/11 A3015 RMK A01 T01350110  RH  085%=      5-min Rain = 0
KMC4 100538Z 12005KT 14/11 A3015 RMK A01 T01350110  RH  085%=      5-min Rain = 0
KMC4 100539Z 12005KT 14/11 A3015 RMK A01 T01350110  RH  085%=      5-min Rain = 0
KMC4 100540Z 12006KT 14/11 A3015 RMK A01 T01350110  RH  085%=      5-min Rain = 0
KMC4 100541Z 12006KT 14/11 A3015 RMK A01 T01350110  RH  085%=      5-min Rain = 0
KMC4 100542Z 12005KT 14/11 A3015 RMK A01 T01350110  RH  085%=      5-min Rain = 0
KMC4 100543Z 12005KT 14/11 A3015 RMK A01 T01350110  RH  085%=      5-min Rain = 0
KMC4 100544Z 12005KT 13/11 A3015 RMK A01 T01340110  RH  085%=      5-min Rain = 0
KMC4 100545Z 11005KT 13/11 A3015 RMK A01 T01340110  RH  085%=      5-min Rain = 0
KMC4 100546Z 12006KT 13/11 A3015 RMK A01 T01340109  RH  085%=      5-min Rain = 0
KMC4 100547Z 12005KT 13/11 A3015 RMK A01 T01340109  RH  085%=      5-min Rain = 0
KMC4 100548Z 12005KT 13/11 A3015 RMK A01 T01340109  RH  085%=      5-min Rain = 0
KMC4 100549Z 12005KT 13/11 A3015 RMK A01 T01340109  RH  085%=      5-min Rain = 0
KMC4 100550Z 12005KT 13/11 A3015 RMK A01 T01340109  RH  085%=      5-min Rain = 0
KMC4 100551Z 12005KT 13/11 A3015 RMK A01 T01330109  RH  085%=      5-min Rain = 0
KMC4 100552Z 12005KT 13/11 A3015 RMK A01 T01330109  RH  085%=      5-min Rain = 0
KMC4 100553Z 12005KT 13/11 A3015 RMK A01 T01330109  RH  085%=      5-min Rain = 0
KMC4 100554Z 12005KT 13/11 A3015 RMK A01 T01330109  RH  085%=      5-min Rain = 0
KMC4 100555Z 12005KT 13/11 A3015 RMK A01 T01330109  RH  085%=      5-min Rain = 0
KMC4 100556Z 13005KT 13/11 A3015 RMK A01 T01330109  RH  085%=      5-min Rain = 0
KMC4 100557Z 13005KT 13/11 A3015 RMK A01 T01320109  RH  085%=      5-min Rain = 0
KMC4 100558Z 13005KT 13/11 A3015 RMK A01 T01320109  RH  086%=      5-min Rain = 0
KMC4 100559Z 14005KT 13/11 A3015 RMK A01 T01320109  RH  086%=      5-min Rain = 0

Page generated in 0.286 seconds.